OK2JF-6 Weather Reports


time (UTC)temp
F
wind
direction
speed
knots
gust
knots
rain 1hr
in
rain 24hr
in
rain mn
in
humidity
%
barometer
mb
20260507034103 51 249 0.0 1.7 0.00 0.00 0.00 88 1080.3
20260507033903 51 260 0.0 1.7 0.00 0.00 0.00 88 1080.3
20260507033803 51 260 0.0 1.7 0.00 0.00 0.00 88 1080.5
20260507033703 51 260 0.0 1.7 0.00 0.00 0.00 88 1080.3
20260507033617 51 260 0.0 1.7 0.00 0.00 0.00 88 1080.3
20260507033603 51 260 0.0 1.7 0.00 0.00 0.00 89 1080.4
20260507033503 51 260 0.0 1.7 0.00 0.00 0.00 88 1080.3
20260507033303 51 261 0.0 1.7 0.00 0.00 0.00 89 1080.3
20260507033217 51 264 0.0 0.9 0.00 0.00 0.00 89 1080.3
20260507033203 51 269 0.0 0.9 0.00 0.00 0.00 88 1080.4
20260507033103 51 287 0.0 0.9 0.00 0.00 0.00 88 1080.3
20260507033016 51 299 0.0 1.7 0.00 0.00 0.00 88 1080.3
20260507032903 51 315 0.0 1.7 0.00 0.00 0.00 88 1080.5
20260507032703 51 315 0.0 1.7 0.00 0.00 0.00 88 1080.3
20260507032603 51 315 0.0 1.7 0.00 0.00 0.00 88 1080.3
20260507032503 51 310 0.0 1.7 0.00 0.00 0.00 88 1080.2
20260507032403 51 306 0.0 1.7 0.00 0.00 0.00 88 1080.1
20260507032316 51 306 0.0 1.7 0.00 0.00 0.00 88 1080.1
20260507032305 51 306 0.0 1.7 0.00 0.00 0.00 88 1080.2
20260507032203 51 289 0.0 1.7 0.00 0.00 0.00 88 1080.5
20260507032003 51 214 0.0 3.5 0.00 0.00 0.00 88 1080.3
20260507031903 51 210 0.0 3.5 0.00 0.00 0.00 88 1080.2
20260507031803 51 210 0.0 3.5 0.00 0.00 0.00 88 1080.2
20260507031703 51 210 0.9 3.5 0.00 0.00 0.00 88 1080.0
20260507031603 51 209 0.9 3.5 0.00 0.00 0.00 89 1080.4
20260507031503 51 208 0.9 3.5 0.00 0.00 0.00 89 1080.4
20260507031403 51 205 0.9 3.5 0.00 0.00 0.00 89 1080.4
20260507031303 51 205 0.9 3.5 0.00 0.00 0.00 89 1080.4
20260507031103 51 208 0.9 3.5 0.00 0.00 0.00 88 1080.4
20260507031003 50 209 0.0 2.6 0.00 0.00 0.00 89 1080.0
20260507030917 50 209 0.0 2.6 0.00 0.00 0.00 88 1080.0
20260507030903 50 209 0.0 2.6 0.00 0.00 0.00 88 1080.4
20260507030817 50 209 0.0 2.6 0.00 0.00 0.00 89 1080.4
20260507030803 50 209 0.0 2.6 0.00 0.00 0.00 89 1080.2
20260507030616 50 210 0.0 2.6 0.00 0.00 0.00 87 1080.2
20260507030503 50 216 0.0 1.7 0.00 0.00 0.00 87 1080.2
20260507030418 50 220 0.0 0.9 0.00 0.00 0.00 88 1080.2
20260507030303 50 0 0.0 0.0 0.00 0.00 0.00 87 1080.3
20260507030003 50 0 0.0 0.0 0.00 0.00 0.00 87 1080.2
20260507025903 50 0 0.0 0.0 0.00 0.00 0.00 87 1080.3
20260507025803 50 0 0.0 0.0 0.00 0.00 0.00 87 1080.3
20260507025703 50 231 0.0 0.9 0.00 0.00 0.00 87 1080.2
20260507025603 50 231 0.0 0.9 0.00 0.00 0.00 87 1080.3
20260507025503 50 231 0.0 0.9 0.00 0.00 0.00 87 1080.3
20260507025403 50 219 0.0 0.9 0.00 0.00 0.00 87 1080.3
20260507025306 50 215 0.0 1.7 0.00 0.00 0.00 87 1080.1
20260507025203 50 210 0.0 1.7 0.00 0.00 0.00 87 1080.5
20260507025103 50 208 0.0 1.7 0.00 0.00 0.00 87 1080.3
20260507025003 50 207 0.0 1.7 0.00 0.00 0.00 87 1080.3
20260507024916 50 205 0.0 1.7 0.00 0.00 0.00 87 1080.3
20260507024903 50 205 0.0 1.7 0.00 0.00 0.00 87 1080.4
20260507024803 50 204 0.0 1.7 0.00 0.00 0.00 88 1080.1
20260507024603 50 201 0.9 1.7 0.00 0.00 0.00 87 1080.3
20260507024503 50 202 0.9 1.7 0.00 0.00 0.00 87 1080.1
20260507024403 50 203 0.9 1.7 0.00 0.00 0.00 88 1080.0
20260507024316 50 202 0.9 1.7 0.00 0.00 0.00 87 1080.0
20260507024303 50 202 0.9 1.7 0.00 0.00 0.00 87 1080.2
20260507024203 50 202 0.0 1.7 0.00 0.00 0.00 87 1080.2
20260507024003 51 200 0.0 1.7 0.00 0.00 0.00 87 1080.2
20260507023903 50 203 0.0 0.9 0.00 0.00 0.00 87 1080.3
20260507023803 51 205 0.0 0.9 0.00 0.00 0.00 87 1080.3
20260507023703 51 219 0.0 0.9 0.00 0.00 0.00 87 1080.1
20260507023603 51 225 0.0 0.9 0.00 0.00 0.00 87 1080.1
20260507023503 51 225 0.0 0.9 0.00 0.00 0.00 87 1080.1
20260507023403 51 0 0.0 0.0 0.00 0.00 0.00 87 1080.0
20260507023318 51 0 0.0 0.0 0.00 0.00 0.00 87 1080.0
20260507023203 51 0 0.0 0.0 0.00 0.00 0.00 87 1080.2
20260507023003 51 0 0.0 0.0 0.00 0.00 0.00 87 1080.2
20260507022903 51 222 0.0 0.9 0.00 0.00 0.00 87 1080.1
20260507022803 51 230 0.0 1.7 0.00 0.00 0.00 87 1079.9
20260507022703 51 230 0.0 1.7 0.00 0.00 0.00 87 1080.1
20260507022603 51 230 0.0 1.7 0.00 0.00 0.00 87 1080.3
20260507022503 51 230 0.0 1.7 0.00 0.00 0.00 87 1080.0
20260507022403 51 230 0.0 1.7 0.00 0.00 0.00 87 1079.9
20260507022306 51 230 0.0 1.7 0.00 0.00 0.00 87 1080.2
20260507022203 51 230 0.0 1.7 0.00 0.00 0.00 87 1080.2
20260507022103 51 230 0.0 1.7 0.00 0.00 0.00 87 1080.1
20260507021903 51 233 0.0 1.7 0.00 0.00 0.00 87 1080.3
20260507021803 51 289 0.0 1.7 0.00 0.00 0.00 87 1080.2
20260507021703 51 277 0.0 1.7 0.00 0.00 0.00 87 1080.3
20260507021603 51 267 0.0 1.7 0.00 0.00 0.00 87 1080.1
20260507021503 51 272 0.0 2.6 0.00 0.00 0.00 87 1080.2
20260507021404 51 269 0.0 2.6 0.00 0.00 0.00 87 1080.1
20260507021318 51 267 0.0 2.6 0.00 0.00 0.00 87 1080.1
20260507021303 51 267 0.0 2.6 0.00 0.00 0.00 87 1080.4
20260507021203 51 266 0.0 2.6 0.00 0.00 0.00 87 1079.9
20260507021003 51 263 0.0 2.6 0.00 0.00 0.00 87 1080.0
20260507020903 51 261 0.0 2.6 0.00 0.00 0.00 87 1080.1
20260507020803 51 260 0.0 2.6 0.00 0.00 0.00 87 1079.9
20260507020703 51 258 0.0 2.6 0.00 0.00 0.00 87 1080.1
20260507020603 51 256 0.0 2.6 0.00 0.00 0.00 87 1080.1
20260507020503 51 246 0.0 0.9 0.00 0.00 0.00 87 1080.0
20260507020403 51 239 0.0 3.5 0.00 0.00 0.00 87 1080.1
20260507020318 51 246 0.0 3.5 0.00 0.00 0.00 87 1080.1
20260507020303 51 243 0.0 3.5 0.00 0.00 0.00 87 1080.1
20260507020203 51 242 0.9 3.5 0.00 0.00 0.00 87 1080.0
20260507020003 51 242 0.9 3.5 0.00 0.00 0.00 87 1080.0
20260507015903 51 242 0.9 3.5 0.00 0.00 0.00 87 1080.1
20260507015803 51 244 0.9 3.5 0.00 0.00 0.00 87 1080.0
20260507015717 51 250 0.9 3.5 0.00 0.00 0.00 87 1080.0
20260507015703 51 253 0.9 3.5 0.00 0.00 0.00 87 1079.9
20260507015603 51 256 0.9 3.5 0.00 0.00 0.00 87 1079.9
20260507015517 51 255 0.9 3.5 0.00 0.00 0.00 87 1079.9
20260507015403 51 257 0.9 2.6 0.00 0.00 0.00 87 1079.7
20260507015203 51 265 0.9 2.6 0.00 0.00 0.00 86 1079.9
20260507015103 51 266 0.9 2.6 0.00 0.00 0.00 86 1080.0
20260507015003 51 264 0.9 2.6 0.00 0.00 0.00 86 1079.8
20260507014916 51 262 0.9 2.6 0.00 0.00 0.00 86 1079.8
20260507014903 51 261 0.9 2.6 0.00 0.00 0.00 86 1079.6
20260507014817 51 260 0.9 2.6 0.00 0.00 0.00 86 1079.6
20260507014803 52 260 0.9 2.6 0.00 0.00 0.00 86 1079.6
20260507014503 52 257 0.9 2.6 0.00 0.00 0.00 87 1079.5
20260507014403 52 256 0.9 2.6 0.00 0.00 0.00 87 1079.7
20260507014303 52 251 0.9 2.6 0.00 0.00 0.00 87 1079.6
20260507014203 52 246 0.9 2.6 0.00 0.00 0.00 87 1079.6
20260507014103 52 244 0.9 2.6 0.00 0.00 0.00 87 1079.5
20260507014003 52 245 0.9 2.6 0.00 0.00 0.00 87 1079.6
20260507013903 52 244 0.9 2.6 0.00 0.00 0.00 87 1079.5
20260507013803 52 245 0.9 2.6 0.00 0.00 0.00 86 1079.5
20260507013703 52 244 0.9 2.6 0.00 0.00 0.00 87 1079.6
20260507013603 52 247 0.9 1.7 0.00 0.00 0.00 86 1079.6
20260507013503 52 247 0.9 1.7 0.00 0.00 0.00 86 1079.6
20260507013403 52 254 0.9 1.7 0.00 0.00 0.00 86 1079.7
20260507013303 52 261 0.9 1.7 0.00 0.00 0.00 86 1079.6
20260507013203 52 272 0.9 1.7 0.00 0.00 0.00 86 1079.6
20260507013103 52 280 0.9 1.7 0.00 0.00 0.00 86 1079.6
20260507013003 52 286 0.9 1.7 0.00 0.00 0.00 86 1079.5
20260507012903 52 292 0.9 1.7 0.00 0.00 0.00 86 1079.4
20260507012803 52 297 0.9 1.7 0.00 0.00 0.00 87 1079.4
20260507012703 52 297 0.9 1.7 0.00 0.00 0.00 87 1079.5
20260507012603 52 287 0.9 1.7 0.00 0.00 0.00 87 1079.4
20260507012503 52 282 0.9 1.7 0.00 0.00 0.00 87 1079.4
20260507012403 52 276 0.9 1.7 0.00 0.00 0.00 87 1079.4
20260507012306 52 267 0.9 1.7 0.00 0.00 0.00 87 1079.3
20260507012203 52 260 0.9 2.6 0.00 0.00 0.00 87 1079.6
20260507012103 52 255 0.9 2.6 0.00 0.00 0.00 87 1079.7
20260507012017 52 255 0.9 2.6 0.00 0.00 0.00 86 1079.7
20260507012003 52 252 0.9 2.6 0.00 0.00 0.00 86 1079.8
20260507011903 52 248 0.9 2.6 0.00 0.00 0.00 86 1079.7
20260507011817 52 247 0.9 2.6 0.00 0.00 0.00 86 1079.7
20260507011703 52 246 0.9 2.6 0.00 0.00 0.00 86 1079.6
20260507011618 52 246 0.9 2.6 0.00 0.00 0.00 87 1079.6
20260507011516 52 246 0.9 2.6 0.00 0.00 0.00 87 1079.8
20260507011503 52 247 0.9 2.6 0.00 0.00 0.00 87 1079.8
20260507011203 52 244 0.9 2.6 0.00 0.00 0.00 87 1079.7
20260507011103 52 244 0.9 2.6 0.00 0.00 0.00 87 1079.5
20260507011003 52 244 0.9 2.6 0.00 0.00 0.00 87 1079.8
20260507010918 52 242 0.9 2.6 0.00 0.00 0.00 87 1079.8
20260507010903 52 240 0.9 2.6 0.00 0.00 0.00 87 1079.8
20260507010817 52 236 0.9 2.6 0.00 0.00 0.00 87 1079.8
20260507010503 52 232 0.9 3.5 0.00 0.00 0.00 87 1079.7
20260507010403 52 232 0.9 3.5 0.00 0.00 0.00 87 1079.7
20260507010303 52 232 0.9 3.5 0.00 0.00 0.00 87 1079.7
20260507010203 52 226 0.9 3.5 0.00 0.00 0.00 87 1079.7
20260507010003 52 224 0.9 3.5 0.00 0.00 0.00 87 1079.7
20260507005903 52 231 0.9 3.5 0.00 0.00 0.00 87 1079.5
20260507005803 52 240 0.9 3.5 0.00 0.00 0.00 87 1079.5
20260507005703 52 244 0.9 3.5 0.00 0.00 0.00 87 1079.6
20260507005603 52 247 0.9 3.5 0.00 0.00 0.00 88 1079.4
20260507005503 52 250 0.9 3.5 0.00 0.00 0.00 88 1079.5
20260507005403 52 253 1.7 3.5 0.00 0.00 0.00 87 1079.4
20260507005305 52 253 1.7 3.5 0.00 0.00 0.00 87 1079.4
20260507005203 52 259 1.7 3.5 0.00 0.00 0.00 87 1079.3
20260507005103 52 262 1.7 3.5 0.00 0.00 0.00 87 1079.5
20260507005003 52 262 1.7 3.5 0.00 0.00 0.00 88 1079.3
20260507004903 52 262 1.7 3.5 0.00 0.00 0.00 87 1079.5
20260507004803 52 258 1.7 3.5 0.00 0.00 0.00 87 1079.5
20260507004717 52 259 1.7 3.5 0.00 0.00 0.00 87 1079.5
20260507004703 52 258 1.7 3.5 0.00 0.00 0.00 88 1079.5
20260507004603 52 258 1.7 3.5 0.00 0.00 0.00 88 1079.5
20260507004516 52 256 1.7 3.5 0.00 0.00 0.00 88 1079.5
20260507004403 52 256 1.7 3.5 0.00 0.00 0.00 88 1079.4
20260507004203 52 260 1.7 3.5 0.00 0.00 0.00 87 1079.3
20260507004103 52 256 1.7 5.2 0.00 0.00 0.00 87 1079.4
20260507004003 52 253 1.7 5.2 0.00 0.00 0.00 87 1079.3
20260507003903 52 250 1.7 6.1 0.00 0.00 0.00 87 1079.3
20260507003816 52 249 1.7 6.1 0.00 0.00 0.00 87 1079.3
20260507003803 52 249 1.7 6.1 0.00 0.00 0.00 87 1079.4
20260507003703 52 242 1.7 6.1 0.00 0.00 0.00 87 1079.3
20260507003503 52 234 1.7 6.1 0.00 0.00 0.00 87 1079.4
20260507003417 53 225 1.7 6.1 0.00 0.00 0.00 87 1079.4
20260507003403 53 222 1.7 6.1 0.00 0.00 0.00 87 1079.4
20260507003303 53 213 1.7 6.1 0.00 0.00 0.00 87 1079.4
20260507003103 53 201 1.7 6.1 0.00 0.00 0.00 87 1079.4
20260507003003 53 199 1.7 6.1 0.00 0.00 0.00 86 1079.5
20260507002903 53 197 1.7 6.1 0.00 0.00 0.00 86 1079.6
20260507002816 53 199 1.7 6.1 0.00 0.00 0.00 86 1079.6
20260507002803 53 199 1.7 6.1 0.00 0.00 0.00 86 1079.5
20260507002703 53 200 1.7 6.1 0.00 0.00 0.00 87 1079.5
20260507002503 53 200 1.7 6.1 0.00 0.00 0.00 86 1079.3
20260507002403 53 200 1.7 6.1 0.00 0.00 0.00 86 1079.5
20260507002317 53 198 0.9 3.5 0.00 0.00 0.00 86 1079.5
20260507002306 53 198 0.9 3.5 0.00 0.00 0.00 86 1079.4
20260507002218 53 201 1.7 3.5 0.00 0.00 0.00 86 1079.4
20260507002203 53 202 1.7 3.5 0.00 0.00 0.00 86 1079.5
20260507001903 53 200 1.7 3.5 0.00 0.00 0.00 85 1079.5
20260507001803 53 199 1.7 3.5 0.00 0.00 0.00 85 1079.4
20260507001703 53 201 1.7 3.5 0.00 0.00 0.00 86 1079.5
20260507001603 53 203 1.7 5.2 0.00 0.00 0.00 86 1079.5
20260507001503 53 203 1.7 5.2 0.00 0.00 0.00 86 1079.6
20260507001403 53 203 1.7 5.2 0.00 0.00 0.00 86 1079.4
20260507001303 53 202 1.7 5.2 0.00 0.00 0.00 86 1079.4
20260507001218 53 199 1.7 5.2 0.00 0.00 0.00 85 1079.4
20260507001203 53 197 1.7 5.2 0.00 0.00 0.00 85 1079.2
20260507001103 53 196 1.7 5.2 0.00 0.00 0.00 85 1079.3
20260507000903 53 193 0.9 5.2 0.00 0.00 0.00 85 1079.2
20260507000803 53 196 0.9 5.2 0.00 0.00 0.00 85 1079.2
20260507000717 54 205 0.9 5.2 0.00 0.00 0.00 85 1079.2
20260507000703 54 207 0.9 5.2 0.00 0.00 0.00 85 1079.2
20260507000617 54 214 0.9 3.5 0.00 0.00 0.00 85 1079.2
20260507000603 54 215 0.9 3.5 0.00 0.00 0.00 85 1079.2
20260507000303 54 241 0.9 5.2 0.00 0.00 0.00 85 1079.2
20260507000219 54 242 0.9 5.2 0.00 0.00 0.00 85 1079.2
20260507000204 54 243 0.9 5.2 0.00 0.00 0.00 85 1079.2
20260506235917 54 231 1.7 5.2 0.00 0.00 0.00 85 1078.9
20260506235903 54 231 1.7 5.2 0.00 0.00 0.00 85 1079.2
20260506235803 54 228 1.7 5.2 0.00 0.00 0.00 85 1079.2
20260506235617 54 212 1.7 5.2 0.00 0.00 0.00 85 1079.0
20260506235603 54 210 1.7 5.2 0.00 0.00 0.00 85 1079.2
20260506235503 54 203 1.7 5.2 0.00 0.00 0.00 85 1078.8
20260506235306 54 191 1.7 3.5 0.00 0.00 0.00 85 1079.2
20260506235203 54 196 1.7 3.5 0.00 0.00 0.00 86 1079.3
20260506235103 54 198 0.9 3.5 0.00 0.00 0.00 86 1078.9
20260506235003 54 204 0.9 3.5 0.00 0.00 0.00 86 1079.0
20260506234903 54 208 1.7 3.5 0.00 0.00 0.00 86 1079.2
20260506234803 54 226 1.7 5.2 0.00 0.00 0.00 86 1078.9
20260506234703 54 285 1.7 5.2 0.00 0.00 0.00 85 1079.2
20260506234603 54 358 1.7 7.8 0.00 0.00 0.00 85 1078.7
20260506234518 54 358 1.7 7.8 0.00 0.00 0.00 85 1078.7
20260506234503 54 355 1.7 7.8 0.00 0.00 0.00 85 1078.8
20260506234403 54 357 1.7 7.8 0.00 0.00 0.00 85 1078.7
20260506234203 54 360 2.6 7.8 0.00 0.00 0.00 86 1078.5
20260506234103 54 1 2.6 7.8 0.00 0.00 0.00 86 1078.7
20260506234003 54 3 2.6 7.8 0.00 0.00 0.00 86 1078.5
20260506233903 54 1 1.7 7.8 0.00 0.00 0.00 86 1078.4
20260506233803 54 1 1.7 7.8 0.00 0.00 0.00 86 1078.2
20260506233717 54 356 1.7 7.8 0.00 0.00 0.00 86 1078.2
20260506233703 54 353 1.7 7.8 0.00 0.00 0.00 86 1078.4
20260506233603 54 340 1.7 6.1 0.00 0.00 0.00 86 1078.4
20260506233403 54 329 1.7 6.1 0.00 0.00 0.00 86 1078.4
20260506233303 54 323 1.7 6.1 0.00 0.00 0.00 86 1078.1
20260506233203 54 316 0.9 5.2 0.00 0.00 0.00 86 1078.2
20260506233103 54 311 0.9 5.2 0.00 0.00 0.00 86 1078.3
20260506233003 54 311 1.7 5.2 0.00 0.00 0.00 86 1078.3
20260506232903 54 322 1.7 6.1 0.00 0.00 0.00 86 1078.5
20260506232818 54 317 1.7 7.0 0.00 0.00 0.00 86 1078.5
20260506232803 54 319 2.6 7.0 0.00 0.00 0.00 86 1078.4
20260506232703 54 328 2.6 7.0 0.00 0.00 0.00 86 1078.4
20260506232503 54 340 2.6 7.0 0.00 0.00 0.00 86 1078.4
20260506232403 54 341 2.6 7.0 0.00 0.00 0.00 86 1078.4
20260506232306 54 340 3.5 8.7 0.00 0.00 0.00 86 1078.3
20260506232203 54 336 3.5 8.7 0.00 0.00 0.00 86 1078.1
20260506232103 54 341 3.5 8.7 0.00 0.00 0.00 86 1078.0
20260506232003 54 344 3.5 8.7 0.00 0.00 0.00 86 1078.0
20260506231903 54 344 4.3 8.7 0.00 0.00 0.00 86 1078.2
20260506231818 54 348 4.3 8.7 0.00 0.00 0.00 86 1078.2
20260506231803 54 349 4.3 8.7 0.00 0.00 0.00 86 1078.1
20260506231703 54 347 4.3 8.7 0.00 0.00 0.00 86 1078.1
20260506231503 54 348 4.3 8.7 0.00 0.00 0.00 86 1078.0
20260506231403 54 350 4.3 8.7 0.00 0.00 0.00 86 1078.1
20260506231303 54 352 3.5 8.7 0.00 0.00 0.00 86 1078.1
20260506231203 54 357 3.5 8.7 0.00 0.00 0.00 86 1078.4
20260506231103 54 354 3.5 8.7 0.00 0.00 0.00 86 1077.9
20260506231003 54 350 3.5 8.7 0.00 0.00 0.00 86 1078.0
20260506230903 54 347 3.5 8.7 0.00 0.00 0.00 86 1077.8
20260506230803 54 342 3.5 8.7 0.00 0.00 0.00 86 1078.2
20260506230703 54 339 3.5 8.7 0.00 0.00 0.00 86 1078.0
20260506230603 54 339 2.6 8.7 0.00 0.00 0.00 86 1078.1
20260506230503 54 335 2.6 8.7 0.00 0.00 0.00 86 1077.9
20260506230403 54 336 3.5 8.7 0.00 0.00 0.00 86 1078.0
20260506230303 54 332 3.5 8.7 0.00 0.00 0.00 86 1078.2
20260506230217 54 330 3.5 8.7 0.00 0.00 0.00 86 1078.2
20260506230203 54 328 3.5 8.7 0.00 0.00 0.00 86 1078.1
20260506230118 54 329 3.5 8.7 0.00 0.00 0.00 86 1078.1
20260506230103 54 331 3.5 8.7 0.00 0.00 0.00 86 1078.2
20260506225803 54 325 3.5 7.8 0.00 0.00 0.00 85 1078.1
20260506225703 54 322 3.5 7.8 0.00 0.00 0.00 85 1078.1
20260506225603 54 317 3.5 7.8 0.00 0.00 0.00 85 1078.0
20260506225517 54 312 3.5 7.8 0.00 0.00 0.00 85 1078.0
20260506225503 54 310 3.5 7.8 0.00 0.00 0.00 85 1078.0
20260506225403 54 298 4.3 7.8 0.00 0.00 0.00 85 1078.1
20260506225217 54 294 4.3 7.8 0.00 0.00 0.00 85 1078.0
20260506225203 54 293 4.3 7.8 0.00 0.00 0.00 85 1078.1
20260506225118 54 288 4.3 7.8 0.00 0.00 0.00 85 1078.1
20260506225103 54 288 4.3 7.8 0.00 0.00 0.00 85 1078.0
20260506224803 54 283 4.3 11.3 0.00 0.00 0.00 85 1078.3
20260506224703 54 286 5.2 11.3 0.00 0.00 0.00 84 1078.2
20260506224603 54 290 5.2 11.3 0.00 0.00 0.00 85 1078.2
20260506224503 54 293 5.2 12.2 0.00 0.00 0.00 84 1078.0
20260506224403 54 297 5.2 13.0 0.00 0.00 0.00 84 1078.0
20260506224303 54 299 5.2 13.0 0.00 0.00 0.00 84 1078.3
20260506224203 54 302 5.2 13.0 0.00 0.00 0.00 84 1078.1
20260506224118 54 306 5.2 13.0 0.00 0.00 0.00 84 1078.1
20260506224103 54 307 5.2 13.0 0.00 0.00 0.00 85 1077.9
20260506224003 54 313 5.2 13.0 0.00 0.00 0.00 84 1078.1
20260506223803 54 325 5.2 13.0 0.00 0.00 0.00 84 1077.8
20260506223703 54 328 5.2 13.0 0.00 0.00 0.00 84 1077.8
20260506223603 54 335 5.2 13.0 0.00 0.00 0.00 84 1077.7
20260506223403 54 338 5.2 13.0 0.00 0.00 0.00 84 1077.8
20260506223317 55 336 5.2 12.2 0.00 0.00 0.00 83 1077.8
20260506223303 55 334 5.2 12.2 0.00 0.00 0.00 83 1077.8
20260506223203 55 335 5.2 12.2 0.00 0.00 0.00 83 1077.8
20260506223003 55 331 5.2 12.2 0.00 0.00 0.00 83 1077.8
20260506222903 55 330 5.2 12.2 0.00 0.00 0.00 82 1077.8
20260506222803 55 322 5.2 11.3 0.00 0.00 0.00 82 1077.9
20260506222703 55 317 5.2 11.3 0.00 0.00 0.00 82 1077.9
20260506222603 55 309 5.2 11.3 0.00 0.00 0.00 82 1078.1
20260506222517 55 302 5.2 11.3 0.00 0.00 0.00 82 1078.1
20260506222503 55 302 5.2 11.3 0.00 0.00 0.00 82 1077.6
20260506222403 55 304 6.1 12.2 0.00 0.00 0.00 82 1077.9
20260506222203 55 310 6.1 12.2 0.00 0.00 0.00 82 1077.9
20260506222103 55 308 5.2 12.2 0.00 0.00 0.00 82 1077.7
20260506222003 55 307 5.2 12.2 0.00 0.00 0.00 82 1077.7
20260506221903 55 300 6.1 12.2 0.00 0.00 0.00 82 1077.8
20260506221803 55 300 6.1 12.2 0.00 0.00 0.00 82 1078.0
20260506221703 55 295 6.1 12.2 0.00 0.00 0.00 82 1077.5
20260506221603 55 289 6.1 12.2 0.00 0.00 0.00 82 1077.7
20260506221503 56 289 6.1 12.2 0.00 0.00 0.00 82 1077.9
20260506221418 56 287 6.1 12.2 0.00 0.00 0.00 82 1077.9
20260506221403 56 287 6.1 12.2 0.00 0.00 0.00 82 1077.7
20260506221303 56 284 6.1 13.9 0.00 0.00 0.00 82 1077.6
20260506221103 56 279 6.1 13.9 0.00 0.00 0.00 82 1077.9
20260506221003 56 276 6.1 13.9 0.00 0.00 0.00 82 1077.8
20260506220903 56 276 5.2 13.9 0.00 0.00 0.00 82 1077.8
20260506220803 56 270 5.2 13.9 0.00 0.00 0.00 82 1077.7
20260506220703 56 269 5.2 13.9 0.00 0.00 0.00 82 1078.1
20260506220603 56 272 5.2 13.9 0.00 0.00 0.00 82 1077.6
20260506220503 56 270 4.3 13.9 0.00 0.00 0.00 82 1078.0
20260506220403 56 265 4.3 13.9 0.00 0.00 0.00 82 1077.9
20260506220303 56 259 4.3 9.6 0.00 0.00 0.00 82 1077.8
20260506220203 56 258 4.3 9.6 0.00 0.00 0.00 82 1077.7
20260506220004 57 254 4.3 9.6 0.00 0.00 0.00 81 1078.1
20260506215903 57 253 4.3 9.6 0.00 0.00 0.00 81 1077.9
20260506215803 57 255 4.3 9.6 0.00 0.00 0.00 80 1077.8
20260506215703 57 252 3.5 8.7 0.00 0.00 0.00 81 1078.0
20260506215616 57 251 4.3 9.6 0.00 0.00 0.00 81 1078.0
20260506215603 57 250 4.3 9.6 0.00 0.00 0.00 81 1077.9
20260506215503 57 250 4.3 9.6 0.00 0.00 0.00 81 1077.9
20260506215316 58 247 4.3 9.6 0.00 0.00 0.00 80 1077.5
20260506215305 58 247 4.3 9.6 0.00 0.00 0.00 80 1077.8
20260506215203 58 240 3.5 9.6 0.00 0.00 0.00 80 1077.7
20260506215118 58 238 3.5 9.6 0.00 0.00 0.00 79 1077.7
20260506215003 58 226 3.5 9.6 0.00 0.00 0.00 79 1077.9
20260506214817 58 225 3.5 9.6 0.00 0.00 0.00 78 1077.7
20260506214803 58 223 3.5 9.6 0.00 0.00 0.00 78 1077.6
20260506214718 58 219 3.5 9.6 0.00 0.00 0.00 78 1077.6
20260506214703 58 218 3.5 9.6 0.00 0.00 0.00 78 1077.8
20260506214403 58 195 2.6 8.7 0.00 0.00 0.00 76 1077.6
20260506214303 58 192 2.6 8.7 0.00 0.00 0.00 76 1077.5
20260506214203 58 189 1.7 8.7 0.00 0.00 0.00 76 1077.7
20260506214103 58 183 1.7 8.7 0.00 0.00 0.00 75 1077.5
20260506214003 58 166 0.9 3.5 0.00 0.00 0.00 75 1077.6
20260506213903 58 129 0.9 3.5 0.00 0.00 0.00 75 1077.2
20260506213817 58 111 0.9 5.2 0.00 0.00 0.00 75 1077.2
20260506213803 58 106 0.9 5.2 0.00 0.00 0.00 74 1076.9
20260506213718 58 99 0.9 5.2 0.00 0.00 0.00 74 1076.9
20260506213703 58 96 0.9 5.2 0.00 0.00 0.00 73 1077.1
20260506213403 58 77 0.9 5.2 0.00 0.00 0.00 73 1076.9
20260506213303 58 77 0.9 5.2 0.00 0.00 0.00 73 1076.8
20260506213203 58 77 1.7 5.2 0.00 0.00 0.00 73 1077.0
20260506213103 58 76 1.7 5.2 0.00 0.00 0.00 73 1077.0
20260506213003 58 77 1.7 5.2 0.00 0.00 0.00 74 1076.9
20260506212903 58 76 1.7 5.2 0.00 0.00 0.00 74 1076.9
20260506212803 58 73 1.7 5.2 0.00 0.00 0.00 73 1076.7
20260506212703 58 71 1.7 5.2 0.00 0.00 0.00 73 1076.6
20260506212616 58 72 2.6 5.2 0.00 0.00 0.00 73 1076.6
20260506212603 58 72 2.6 5.2 0.00 0.00 0.00 73 1076.7
20260506212503 58 74 2.6 6.1 0.00 0.00 0.00 73 1076.8
20260506212316 59 74 2.6 6.1 0.00 0.00 0.00 73 1076.9
20260506212306 59 75 2.6 6.1 0.00 0.00 0.00 73 1076.7
20260506212217 59 75 2.6 6.1 0.00 0.00 0.00 73 1076.7
20260506212203 59 75 2.6 6.1 0.00 0.00 0.00 73 1076.8
20260506211903 59 78 3.5 6.1 0.00 0.00 0.00 74 1076.6
20260506211803 59 81 3.5 6.1 0.00 0.00 0.00 74 1076.8
20260506211703 59 82 3.5 6.1 0.00 0.00 0.00 74 1076.8
20260506211603 59 83 3.5 6.1 0.00 0.00 0.00 74 1076.7
20260506211503 59 83 3.5 6.1 0.00 0.00 0.00 74 1076.7
20260506211403 59 83 3.5 6.1 0.00 0.00 0.00 74 1076.8
20260506211318 59 83 3.5 6.1 0.00 0.00 0.00 74 1076.8
20260506211217 59 84 3.5 6.1 0.00 0.00 0.00 73 1076.7
20260506211203 59 83 3.5 6.1 0.00 0.00 0.00 73 1076.7
20260506210903 59 81 2.6 6.1 0.00 0.00 0.00 73 1076.7
20260506210803 59 78 2.6 6.1 0.00 0.00 0.00 73 1076.5
20260506210703 59 77 2.6 5.2 0.00 0.00 0.00 73 1076.6
20260506210603 59 76 2.6 6.1 0.00 0.00 0.00 73 1076.3
20260506210517 59 76 2.6 6.1 0.00 0.00 0.00 73 1076.3
20260506210503 59 74 2.6 6.1 0.00 0.00 0.00 73 1076.8
20260506210418 59 72 2.6 6.1 0.00 0.00 0.00 73 1076.8
20260506210403 59 72 2.6 6.1 0.00 0.00 0.00 73 1076.5
20260506210003 59 72 2.6 6.1 0.00 0.00 0.00 73 1076.5
20260506205916 59 74 2.6 6.1 0.00 0.00 0.00 73 1076.5
20260506205903 59 74 2.6 6.1 0.00 0.00 0.00 73 1076.7
20260506205803 59 72 2.6 6.1 0.00 0.00 0.00 73 1076.6
20260506205616 59 72 2.6 6.1 0.00 0.00 0.00 74 1076.6
20260506205603 58 71 2.6 6.1 0.00 0.00 0.00 74 1076.5
20260506205503 58 72 2.6 5.2 0.00 0.00 0.00 74 1076.5
20260506205305 58 73 2.6 5.2 0.00 0.00 0.00 74 1076.5
20260506205203 58 74 1.7 5.2 0.00 0.00 0.00 74 1076.6
20260506205103 58 70 1.7 5.2 0.00 0.00 0.00 74 1076.6
20260506205003 58 68 1.7 5.2 0.00 0.00 0.00 74 1076.5
20260506204903 58 67 1.7 5.2 0.00 0.00 0.00 74 1076.5
20260506204803 58 68 1.7 5.2 0.00 0.00 0.00 74 1076.5
20260506204703 58 69 1.7 5.2 0.00 0.00 0.00 73 1076.3
20260506204603 58 70 1.7 5.2 0.00 0.00 0.00 74 1076.3
20260506204503 58 68 1.7 3.5 0.00 0.00 0.00 73 1076.2
20260506204318 58 68 1.7 3.5 0.00 0.00 0.00 74 1076.6
20260506204304 58 68 1.7 3.5 0.00 0.00 0.00 74 1076.2
20260506204203 58 65 1.7 3.5 0.00 0.00 0.00 74 1076.3
20260506204117 58 65 1.7 3.5 0.00 0.00 0.00 73 1076.3
20260506204003 58 67 1.7 3.5 0.00 0.00 0.00 73 1076.6
20260506203803 58 64 1.7 3.5 0.00 0.00 0.00 74 1076.6
20260506203703 58 60 1.7 5.2 0.00 0.00 0.00 73 1076.6
20260506203603 58 60 1.7 5.2 0.00 0.00 0.00 73 1076.5
20260506203503 58 60 1.7 5.2 0.00 0.00 0.00 73 1076.5
20260506203403 58 62 1.7 5.2 0.00 0.00 0.00 74 1076.6
20260506203303 58 60 1.7 5.2 0.00 0.00 0.00 74 1076.6
20260506203203 58 59 1.7 5.2 0.00 0.00 0.00 74 1076.6
20260506203103 58 59 1.7 5.2 0.00 0.00 0.00 74 1076.6
20260506203003 58 55 1.7 5.2 0.00 0.00 0.00 74 1076.6
20260506202903 58 55 0.9 5.2 0.00 0.00 0.00 74 1076.7
20260506202803 58 54 0.9 5.2 0.00 0.00 0.00 74 1076.5
20260506202703 58 54 0.9 5.2 0.00 0.00 0.00 73 1076.5
20260506202603 58 49 0.9 5.2 0.00 0.00 0.00 73 1076.6
20260506202503 58 45 0.0 3.5 0.00 0.00 0.00 73 1076.6
20260506202403 58 45 0.0 3.5 0.00 0.00 0.00 73 1076.7
20260506202306 58 43 0.0 3.5 0.00 0.00 0.00 73 1076.5
20260506202216 58 44 0.0 3.5 0.00 0.00 0.00 73 1076.5
20260506202203 58 43 0.0 3.5 0.00 0.00 0.00 73 1076.5
20260506202103 58 39 0.0 3.5 0.00 0.00 0.00 72 1076.6
20260506201903 58 10 0.0 1.7 0.00 0.00 0.00 72 1076.5
20260506201803 58 1 0.0 1.7 0.00 0.00 0.00 73 1076.6
20260506201703 58 1 0.0 1.7 0.00 0.00 0.00 72 1076.4
20260506201603 59 4 0.0 1.7 0.00 0.00 0.00 72 1076.6
20260506201503 59 2 0.0 1.7 0.00 0.00 0.00 72 1076.6
20260506201403 59 358 0.9 2.6 0.00 0.00 0.00 72 1076.4
20260506201303 59 357 0.9 2.6 0.00 0.00 0.00 72 1076.5
20260506201203 59 357 0.9 2.6 0.00 0.00 0.00 74 1076.7
20260506201103 59 357 0.9 2.6 0.00 0.00 0.00 74 1076.6
20260506201017 59 357 0.9 2.6 0.00 0.00 0.00 71 1076.6
20260506201003 59 357 0.9 2.6 0.00 0.00 0.00 71 1076.5
20260506200903 59 354 0.9 2.6 0.00 0.00 0.00 72 1076.4
20260506200703 59 348 0.9 2.6 0.00 0.00 0.00 72 1076.7
20260506200603 59 340 0.9 2.6 0.00 0.00 0.00 73 1076.7
20260506200503 59 336 0.9 2.6 0.00 0.00 0.00 73 1076.5
20260506200303 60 345 0.9 3.5 0.00 0.00 0.00 72 1076.6
20260506200218 60 345 0.9 3.5 0.00 0.00 0.00 72 1076.6
20260506195903 60 345 1.7 3.5 0.00 0.00 0.00 73 1076.7
20260506195803 60 344 1.7 3.5 0.00 0.00 0.00 72 1076.8
20260506195703 60 343 1.7 3.5 0.00 0.00 0.00 72 1076.5
20260506195603 60 341 1.7 3.5 0.00 0.00 0.00 71 1076.5
20260506195503 60 342 1.7 3.5 0.00 0.00 0.00 72 1076.7
20260506195403 60 342 1.7 3.5 0.00 0.00 0.00 71 1076.4
20260506195317 60 342 1.7 3.5 0.00 0.00 0.00 71 1076.4
20260506195305 60 341 1.7 3.5 0.00 0.00 0.00 70 1076.7
20260506195218 60 340 1.7 2.6 0.00 0.00 0.00 70 1076.7
20260506195203 60 340 1.7 2.6 0.00 0.00 0.00 70 1076.8
20260506194903 61 339 1.7 3.5 0.00 0.00 0.00 69 1076.7
20260506194803 61 337 1.7 3.5 0.00 0.00 0.00 70 1076.7
20260506194703 61 340 1.7 3.5 0.00 0.00 0.00 69 1076.6
20260506194603 61 341 1.7 3.5 0.00 0.00 0.00 68 1076.6
20260506194503 61 341 1.7 3.5 0.00 0.00 0.00 69 1076.5
20260506194403 61 341 1.7 3.5 0.00 0.00 0.00 68 1076.7
20260506194303 61 340 1.7 3.5 0.00 0.00 0.00 67 1076.8
20260506194221 62 341 1.7 3.5 0.00 0.00 0.00 67 1076.8
20260506194004 62 345 0.9 3.5 0.00 0.00 0.00 67 1076.5
20260506193903 62 354 0.9 3.5 0.00 0.00 0.00 66 1076.5
20260506193803 62 358 0.9 2.6 0.00 0.00 0.00 66 1076.8
20260506193703 62 360 0.9 2.6 0.00 0.00 0.00 66 1076.5
20260506193617 62 2 0.9 2.6 0.00 0.00 0.00 66 1076.5
20260506193603 62 3 0.9 2.6 0.00 0.00 0.00 66 1076.6
20260506193503 62 8 1.7 2.6 0.00 0.00 0.00 66 1076.4
20260506193418 62 13 1.7 2.6 0.00 0.00 0.00 66 1076.4
20260506193303 62 18 1.7 3.5 0.00 0.00 0.00 66 1076.6
20260506193103 62 25 0.9 3.5 0.00 0.00 0.00 65 1076.4
20260506193003 62 25 0.9 3.5 0.00 0.00 0.00 66 1076.5
20260506192917 62 21 0.9 3.5 0.00 0.00 0.00 66 1076.5
20260506192903 62 22 0.9 3.5 0.00 0.00 0.00 65 1076.6
20260506192803 62 27 0.9 3.5 0.00 0.00 0.00 65 1076.4
20260506192603 62 47 1.7 5.2 0.00 0.00 0.00 65 1076.5
20260506192503 62 53 0.9 5.2 0.00 0.00 0.00 64 1076.6
20260506192403 62 56 1.7 6.1 0.00 0.00 0.00 64 1076.3
20260506192305 62 61 1.7 6.1 0.00 0.00 0.00 64 1076.4
20260506192203 62 63 1.7 6.1 0.00 0.00 0.00 64 1076.4
20260506192103 62 61 2.6 6.1 0.00 0.00 0.00 64 1076.3
20260506192003 62 63 2.6 6.1 0.00 0.00 0.00 64 1076.2
20260506191903 62 64 2.6 6.1 0.00 0.00 0.00 64 1076.4
20260506191818 62 64 2.6 6.1 0.00 0.00 0.00 64 1076.4
20260506191803 62 64 2.6 6.1 0.00 0.00 0.00 64 1076.3
20260506191703 62 63 2.6 6.1 0.00 0.00 0.00 64 1076.4
20260506191503 62 64 3.5 7.0 0.00 0.00 0.00 64 1076.4
20260506191403 62 65 3.5 7.0 0.00 0.00 0.00 64 1076.2
20260506191303 62 64 3.5 7.0 0.00 0.00 0.00 64 1076.3
20260506191203 63 64 2.6 7.0 0.00 0.00 0.00 64 1076.4
20260506191103 63 67 2.6 7.0 0.00 0.00 0.00 63 1076.4
20260506191003 63 65 2.6 7.0 0.00 0.00 0.00 63 1076.2
20260506190903 63 67 2.6 7.0 0.00 0.00 0.00 63 1076.3
20260506190803 63 69 2.6 7.0 0.00 0.00 0.00 63 1076.2
20260506190703 63 68 3.5 7.0 0.00 0.00 0.00 63 1076.3
20260506190603 63 67 3.5 7.0 0.00 0.00 0.00 63 1076.3
20260506190503 63 66 3.5 7.0 0.00 0.00 0.00 63 1076.2
20260506190403 63 65 3.5 11.3 0.00 0.00 0.00 63 1076.4
20260506190303 63 65 3.5 11.3 0.00 0.00 0.00 63 1076.1
20260506190203 63 64 3.5 11.3 0.00 0.00 0.00 63 1076.3
20260506190004 63 63 3.5 11.3 0.00 0.00 0.00 63 1076.3
20260506185903 63 60 3.5 11.3 0.00 0.00 0.00 63 1076.3
20260506185803 63 59 3.5 11.3 0.00 0.00 0.00 63 1076.2
20260506185703 63 59 3.5 11.3 0.00 0.00 0.00 63 1076.2
20260506185603 63 57 3.5 11.3 0.00 0.00 0.00 63 1076.2
20260506185503 63 59 3.5 11.3 0.00 0.00 0.00 63 1076.3
20260506185403 63 62 2.6 7.0 0.00 0.00 0.00 62 1076.2
20260506185306 63 64 3.5 7.8 0.00 0.00 0.00 62 1076.3
20260506185203 63 66 3.5 7.8 0.00 0.00 0.00 63 1076.2
20260506185103 63 69 3.5 7.8 0.00 0.00 0.00 63 1076.2
20260506185003 63 68 2.6 7.8 0.00 0.00 0.00 62 1076.1
20260506184903 63 71 2.6 7.8 0.00 0.00 0.00 62 1076.1
20260506184803 63 70 2.6 7.8 0.00 0.00 0.00 62 1076.1
20260506184703 63 71 2.6 7.8 0.00 0.00 0.00 62 1076.1
20260506184603 63 74 2.6 7.8 0.00 0.00 0.00 62 1076.1
20260506184503 63 74 2.6 7.8 0.00 0.00 0.00 62 1076.2
20260506184403 63 71 1.7 7.8 0.00 0.00 0.00 62 1076.2
20260506184303 63 69 1.7 6.1 0.00 0.00 0.00 61 1076.4
20260506184203 63 68 1.7 6.1 0.00 0.00 0.00 62 1076.0
20260506184103 63 66 1.7 6.1 0.00 0.00 0.00 62 1076.1
20260506184018 63 66 1.7 6.1 0.00 0.00 0.00 61 1076.1
20260506184003 63 66 1.7 6.1 0.00 0.00 0.00 61 1076.2
20260506183903 63 64 1.7 5.2 0.00 0.00 0.00 61 1076.1
20260506183703 63 61 1.7 5.2 0.00 0.00 0.00 61 1075.8
20260506183603 64 59 1.7 5.2 0.00 0.00 0.00 60 1075.9
20260506183503 64 59 1.7 5.2 0.00 0.00 0.00 60 1076.2
20260506183403 64 58 1.7 5.2 0.00 0.00 0.00 60 1076.1
20260506183303 64 59 1.7 5.2 0.00 0.00 0.00 60 1076.1
20260506183203 64 62 1.7 5.2 0.00 0.00 0.00 59 1076.0
20260506183103 64 63 1.7 5.2 0.00 0.00 0.00 60 1076.1
20260506183003 64 68 2.6 6.1 0.00 0.00 0.00 59 1076.2
20260506182903 64 69 2.6 6.1 0.00 0.00 0.00 59 1076.3
20260506182803 64 70 2.6 6.1 0.00 0.00 0.00 60 1076.2
20260506182703 64 74 2.6 7.0 0.00 0.00 0.00 60 1076.1
20260506182603 64 75 3.5 7.8 0.00 0.00 0.00 60 1076.1
20260506182503 64 78 3.5 9.6 0.00 0.00 0.00 59 1076.1
20260506182403 64 77 3.5 9.6 0.00 0.00 0.00 59 1076.0
20260506182318 64 78 3.5 9.6 0.00 0.00 0.00 59 1076.0
20260506182306 64 77 3.5 9.6 0.00 0.00 0.00 59 1076.1
20260506182203 64 74 3.5 9.6 0.00 0.00 0.00 59 1076.0
20260506182018 64 74 3.5 9.6 0.00 0.00 0.00 59 1076.2
20260506182003 64 73 3.5 9.6 0.00 0.00 0.00 59 1076.0
20260506181903 65 74 3.5 9.6 0.00 0.00 0.00 58 1076.2
20260506181703 65 74 3.5 9.6 0.00 0.00 0.00 59 1076.0
20260506181603 65 75 3.5 9.6 0.00 0.00 0.00 59 1076.0
20260506181503 65 75 3.5 8.7 0.00 0.00 0.00 58 1076.1
20260506181403 65 77 3.5 8.7 0.00 0.00 0.00 58 1075.9
20260506181303 65 78 3.5 8.7 0.00 0.00 0.00 58 1075.9
20260506181203 65 82 4.3 8.7 0.00 0.00 0.00 58 1076.0
20260506181103 65 83 4.3 8.7 0.00 0.00 0.00 58 1076.0
20260506181003 65 80 4.3 8.7 0.00 0.00 0.00 58 1076.1
20260506180903 65 82 4.3 8.7 0.00 0.00 0.00 58 1076.1
20260506180803 65 83 4.3 8.7 0.00 0.00 0.00 58 1075.9
20260506180718 65 83 4.3 8.7 0.00 0.00 0.00 58 1075.9
20260506180703 65 82 4.3 8.7 0.00 0.00 0.00 57 1076.1
20260506180603 65 83 4.3 8.7 0.00 0.00 0.00 57 1076.0
20260506180403 65 82 4.3 9.6 0.00 0.00 0.00 57 1076.1
20260506180303 65 80 4.3 9.6 0.00 0.00 0.00 57 1076.1
20260506180203 65 80 5.2 9.6 0.00 0.00 0.00 57 1076.1
20260506180004 66 85 5.2 12.2 0.00 0.00 0.00 57 1076.1
20260506175803 66 84 6.1 12.2 0.00 0.00 0.00 56 1076.0
20260506175703 66 84 6.1 12.2 0.00 0.00 0.00 56 1076.2
20260506175603 66 85 5.2 12.2 0.00 0.00 0.00 56 1076.0
20260506175503 66 83 5.2 12.2 0.00 0.00 0.00 56 1076.0
20260506175403 66 87 5.2 12.2 0.00 0.00 0.00 56 1076.1
20260506175306 66 92 5.2 12.2 0.00 0.00 0.00 56 1075.9
20260506175203 66 94 5.2 12.2 0.00 0.00 0.00 56 1076.2
20260506175103 66 90 6.1 15.6 0.00 0.00 0.00 56 1076.0
20260506175003 66 86 6.1 15.6 0.00 0.00 0.00 56 1075.9
20260506174903 66 87 6.1 15.6 0.00 0.00 0.00 55 1075.9
20260506174803 66 86 6.1 15.6 0.00 0.00 0.00 55 1075.9
20260506174718 66 90 6.1 15.6 0.00 0.00 0.00 55 1075.9
20260506174703 66 91 6.1 15.6 0.00 0.00 0.00 55 1076.0
20260506174603 66 91 7.0 15.6 0.00 0.00 0.00 55 1076.0
20260506174403 66 93 7.0 15.6 0.00 0.00 0.00 55 1075.9
20260506174303 66 93 7.0 15.6 0.00 0.00 0.00 55 1075.9
20260506174217 67 94 7.0 15.6 0.00 0.00 0.00 55 1075.9
20260506174203 67 94 7.0 15.6 0.00 0.00 0.00 55 1076.1
20260506174103 67 98 6.1 13.0 0.00 0.00 0.00 55 1076.0
20260506174018 67 103 6.1 13.0 0.00 0.00 0.00 55 1076.0
20260506173903 67 105 6.1 14.8 0.00 0.00 0.00 55 1075.9
20260506173817 67 106 7.0 14.8 0.00 0.00 0.00 55 1075.9
20260506173703 67 105 6.1 14.8 0.00 0.00 0.00 55 1076.1
20260506173503 67 104 6.1 14.8 0.00 0.00 0.00 55 1076.0
20260506173403 67 104 6.1 14.8 0.00 0.00 0.00 54 1075.9
20260506173303 67 103 6.1 14.8 0.00 0.00 0.00 54 1075.9
20260506173203 67 102 6.1 14.8 0.00 0.00 0.00 54 1076.1
20260506173103 67 103 6.1 14.8 0.00 0.00 0.00 54 1076.3
20260506173003 67 102 6.1 13.0 0.00 0.00 0.00 54 1076.1
20260506172903 67 100 6.1 12.2 0.00 0.00 0.00 54 1075.9
20260506172803 67 97 6.1 12.2 0.00 0.00 0.00 53 1076.1
20260506172703 67 98 6.1 12.2 0.00 0.00 0.00 53 1076.3
20260506172618 67 98 6.1 12.2 0.00 0.00 0.00 53 1076.3
20260506172603 67 97 6.1 12.2 0.00 0.00 0.00 53 1076.2
20260506172503 67 94 6.1 12.2 0.00 0.00 0.00 53 1076.0
20260506172306 68 93 7.0 13.0 0.00 0.00 0.00 53 1076.0
20260506172203 68 91 7.0 14.8 0.00 0.00 0.00 53 1076.2
20260506172103 68 91 7.0 14.8 0.00 0.00 0.00 53 1075.7
20260506172003 68 91 7.0 14.8 0.00 0.00 0.00 52 1075.9
20260506171903 68 92 7.0 14.8 0.00 0.00 0.00 52 1076.1
20260506171803 68 94 7.0 14.8 0.00 0.00 0.00 52 1076.0
20260506171717 68 89 7.0 15.6 0.00 0.00 0.00 52 1076.0
20260506171703 68 88 7.0 15.6 0.00 0.00 0.00 52 1076.2
20260506171618 68 89 7.8 15.6 0.00 0.00 0.00 52 1076.2
20260506171603 68 88 7.8 15.6 0.00 0.00 0.00 52 1076.1
20260506171517 68 88 7.8 15.6 0.00 0.00 0.00 51 1076.1
20260506171217 68 88 7.8 15.6 0.00 0.00 0.00 51 1076.0
20260506171203 68 88 7.8 15.6 0.00 0.00 0.00 51 1076.2
20260506171103 68 87 7.0 15.6 0.00 0.00 0.00 51 1076.2
20260506171018 68 86 7.0 15.6 0.00 0.00 0.00 51 1076.2
20260506170903 68 83 7.8 15.6 0.00 0.00 0.00 51 1076.0
20260506170703 68 90 7.0 16.5 0.00 0.00 0.00 51 1076.1
20260506170603 68 92 6.1 16.5 0.00 0.00 0.00 51 1076.1
20260506170517 68 92 6.1 16.5 0.00 0.00 0.00 51 1076.1
20260506170503 68 89 6.1 16.5 0.00 0.00 0.00 50 1076.2
20260506170403 69 92 6.1 16.5 0.00 0.00 0.00 50 1075.9
20260506170203 69 91 6.1 16.5 0.00 0.00 0.00 50 1076.0
20260506170117 69 94 6.1 16.5 0.00 0.00 0.00 50 1076.0
20260506170103 69 94 6.1 16.5 0.00 0.00 0.00 50 1075.9
20260506170004 69 93 6.1 16.5 0.00 0.00 0.00 50 1076.0
20260506165803 69 98 6.1 14.8 0.00 0.00 0.00 50 1076.1
20260506165703 69 97 6.1 14.8 0.00 0.00 0.00 50 1075.8
20260506165603 69 98 6.1 14.8 0.00 0.00 0.00 50 1076.0
20260506165503 69 100 6.1 14.8 0.00 0.00 0.00 50 1075.9
20260506165417 69 104 7.0 15.6 0.00 0.00 0.00 50 1075.9
20260506165403 69 105 7.0 15.6 0.00 0.00 0.00 50 1075.8
20260506165305 69 106 7.0 15.6 0.00 0.00 0.00 50 1076.2
20260506165103 69 104 6.1 18.2 0.00 0.00 0.00 50 1076.2
20260506165003 69 105 7.0 18.2 0.00 0.00 0.00 50 1075.9
20260506164903 69 104 7.0 18.2 0.00 0.00 0.00 50 1076.1
20260506164804 69 103 7.0 18.2 0.00 0.00 0.00 50 1076.0
20260506164703 69 102 7.8 18.2 0.00 0.00 0.00 50 1075.9
20260506164618 69 102 7.8 18.2 0.00 0.00 0.00 50 1075.9
20260506164603 69 102 7.8 18.2 0.00 0.00 0.00 50 1076.2
20260506164503 69 99 7.8 18.2 0.00 0.00 0.00 49 1076.3
20260506164303 69 95 7.8 18.2 0.00 0.00 0.00 49 1076.2
20260506164203 69 95 8.7 18.2 0.00 0.00 0.00 49 1075.9
20260506164103 69 97 8.7 18.2 0.00 0.00 0.00 49 1075.7
20260506164003 69 96 7.8 18.2 0.00 0.00 0.00 49 1076.2
20260506163903 69 97 7.8 18.2 0.00 0.00 0.00 49 1076.1
20260506163803 69 94 7.8 18.2 0.00 0.00 0.00 49 1076.0
20260506163703 69 93 7.0 18.2 0.00 0.00 0.00 49 1076.1
20260506163603 69 90 7.0 18.2 0.00 0.00 0.00 49 1076.2
20260506163503 69 93 6.1 18.2 0.00 0.00 0.00 49 1076.2
20260506163403 69 97 7.0 18.2 0.00 0.00 0.00 49 1076.2
20260506163203 69 95 6.1 18.2 0.00 0.00 0.00 50 1076.4
20260506163103 69 95 6.1 14.8 0.00 0.00 0.00 50 1076.2
20260506163003 69 93 7.0 14.8 0.00 0.00 0.00 50 1076.4
20260506162903 69 93 6.1 14.8 0.00 0.00 0.00 50 1076.2
20260506162803 69 93 6.1 14.8 0.00 0.00 0.00 50 1076.2
20260506162703 69 94 7.0 14.8 0.00 0.00 0.00 50 1076.5
20260506162603 69 92 7.0 14.8 0.00 0.00 0.00 50 1076.1
20260506162503 69 91 7.0 14.8 0.00 0.00 0.00 50 1076.4
20260506162403 69 86 7.0 14.8 0.00 0.00 0.00 50 1076.5
20260506162306 69 85 7.0 14.8 0.00 0.00 0.00 50 1076.1
20260506162203 69 83 6.1 14.8 0.00 0.00 0.00 50 1076.5
20260506162103 69 84 6.1 14.8 0.00 0.00 0.00 50 1076.3
20260506162003 69 87 6.1 14.8 0.00 0.00 0.00 50 1076.1
20260506161918 69 87 6.1 14.8 0.00 0.00 0.00 50 1076.1
20260506161903 69 86 6.1 14.8 0.00 0.00 0.00 50 1076.5
20260506161803 69 86 7.0 14.8 0.00 0.00 0.00 50 1076.3
20260506161603 69 95 6.1 13.0 0.00 0.00 0.00 50 1076.6
20260506161516 69 98 6.1 13.0 0.00 0.00 0.00 49 1076.6
20260506161503 69 99 6.1 13.0 0.00 0.00 0.00 49 1076.4
20260506161417 70 104 6.1 13.0 0.00 0.00 0.00 50 1076.4
20260506161403 70 106 6.1 13.0 0.00 0.00 0.00 50 1076.3
20260506161218 70 112 6.1 13.0 0.00 0.00 0.00 50 1076.5
20260506161103 70 113 6.1 13.0 0.00 0.00 0.00 49 1076.5
20260506160903 70 107 7.0 18.2 0.00 0.00 0.00 50 1076.6
20260506160803 70 106 7.0 18.2 0.00 0.00 0.00 50 1076.5
20260506160703 70 104 7.0 18.2 0.00 0.00 0.00 49 1076.5
20260506160603 70 101 7.0 18.2 0.00 0.00 0.00 50 1076.6
20260506160503 70 96 7.0 18.2 0.00 0.00 0.00 49 1076.5
20260506160403 70 93 7.0 18.2 0.00 0.00 0.00 49 1076.3
20260506160303 70 89 7.8 19.1 0.00 0.00 0.00 49 1076.6
20260506160203 70 90 7.8 19.1 0.00 0.00 0.00 49 1076.6
20260506160103 70 92 7.8 19.1 0.00 0.00 0.00 49 1076.7
20260506160003 70 94 8.7 19.1 0.00 0.00 0.00 49 1076.6
20260506155903 70 98 8.7 19.1 0.00 0.00 0.00 49 1076.6
20260506155803 70 101 7.8 19.1 0.00 0.00 0.00 49 1076.6
20260506155703 70 98 8.7 19.1 0.00 0.00 0.00 49 1076.6
20260506155618 70 99 8.7 19.1 0.00 0.00 0.00 49 1076.6
20260506155603 70 100 8.7 19.1 0.00 0.00 0.00 49 1076.8
20260506155518 70 100 8.7 19.1 0.00 0.00 0.00 49 1076.8
20260506155503 70 101 8.7 19.1 0.00 0.00 0.00 49 1076.6
20260506155203 70 97 8.7 18.2 0.00 0.00 0.00 49 1076.5
20260506155103 70 94 7.8 16.5 0.00 0.00 0.00 49 1076.7
20260506155003 70 91 7.8 16.5 0.00 0.00 0.00 49 1076.6
20260506154903 70 94 8.7 20.0 0.00 0.00 0.00 49 1076.6
20260506154803 70 91 8.7 20.9 0.00 0.00 0.00 49 1076.5
20260506154703 70 95 7.8 20.9 0.00 0.00 0.00 49 1076.7
20260506154603 70 94 7.8 20.9 0.00 0.00 0.00 49 1076.5
20260506154503 70 92 7.8 20.9 0.00 0.00 0.00 49 1076.6
20260506154403 70 101 7.8 20.9 0.00 0.00 0.00 49 1076.6
20260506154303 70 107 8.7 20.9 0.00 0.00 0.00 49 1076.6
20260506154203 70 107 8.7 20.9 0.00 0.00 0.00 48 1076.6
20260506154103 70 108 8.7 20.9 0.00 0.00 0.00 49 1076.6
20260506154003 70 110 8.7 20.9 0.00 0.00 0.00 49 1076.8
20260506153918 70 108 7.8 20.9 0.00 0.00 0.00 49 1076.8
20260506153903 70 108 7.8 20.9 0.00 0.00 0.00 49 1076.5
20260506153818 70 113 7.0 19.1 0.00 0.00 0.00 49 1076.5
20260506153803 70 115 7.0 19.1 0.00 0.00 0.00 49 1076.7
20260506153503 71 121 7.0 19.1 0.00 0.00 0.00 49 1076.7
20260506153403 71 115 7.0 19.1 0.00 0.00 0.00 49 1077.0
20260506153317 71 108 7.0 18.2 0.00 0.00 0.00 49 1077.0
20260506153303 71 108 6.1 18.2 0.00 0.00 0.00 49 1076.5
20260506153218 71 111 6.1 18.2 0.00 0.00 0.00 50 1076.5
20260506153203 71 111 6.1 18.2 0.00 0.00 0.00 50 1076.6
20260506152903 70 111 7.0 18.2 0.00 0.00 0.00 49 1076.9
20260506152803 70 109 7.0 18.2 0.00 0.00 0.00 50 1077.0
20260506152703 70 108 7.8 18.2 0.00 0.00 0.00 50 1077.1
20260506152603 70 105 7.8 18.2 0.00 0.00 0.00 50 1076.9
20260506152503 70 103 7.8 18.2 0.00 0.00 0.00 51 1077.0
20260506152417 70 103 7.8 18.2 0.00 0.00 0.00 51 1077.0
20260506152403 70 104 7.8 14.8 0.00 0.00 0.00 51 1077.0
20260506152317 70 104 7.8 14.8 0.00 0.00 0.00 50 1077.0
20260506152305 70 105 7.8 14.8 0.00 0.00 0.00 50 1077.0
20260506152017 70 107 7.8 20.0 0.00 0.00 0.00 51 1077.1
20260506152003 70 107 7.8 20.0 0.00 0.00 0.00 51 1077.4
20260506151903 70 106 7.8 20.0 0.00 0.00 0.00 50 1076.9
20260506151703 70 106 7.8 20.0 0.00 0.00 0.00 50 1077.0
20260506151603 70 108 7.8 20.0 0.00 0.00 0.00 50 1077.2
20260506151518 70 109 7.8 20.0 0.00 0.00 0.00 51 1077.2
20260506151503 70 110 7.0 20.0 0.00 0.00 0.00 51 1077.0
20260506151403 69 109 7.0 20.0 0.00 0.00 0.00 51 1077.0
20260506151317 69 109 7.0 20.0 0.00 0.00 0.00 51 1077.0
20260506151203 69 101 7.8 22.6 0.00 0.00 0.00 51 1077.0
20260506151003 69 101 8.7 22.6 0.00 0.00 0.00 51 1076.9
20260506150903 69 101 8.7 22.6 0.00 0.00 0.00 50 1077.0
20260506150818 69 102 8.7 22.6 0.00 0.00 0.00 50 1077.0
20260506150803 69 100 8.7 22.6 0.00 0.00 0.00 50 1077.1
20260506150703 69 100 8.7 22.6 0.00 0.00 0.00 50 1077.1
20260506150503 70 101 9.6 22.6 0.00 0.00 0.00 50 1077.2
20260506150416 70 100 10.4 22.6 0.00 0.00 0.00 50 1077.2
20260506150403 70 100 10.4 22.6 0.00 0.00 0.00 50 1077.2
20260506150317 70 99 10.4 22.6 0.00 0.00 0.00 50 1077.2
20260506150304 70 101 10.4 22.6 0.00 0.00 0.00 50 1077.4
20260506150017 70 110 9.6 21.7 0.00 0.00 0.00 50 1077.5
20260506150003 71 111 9.6 21.7 0.00 0.00 0.00 50 1077.2
20260506145903 71 112 9.6 21.7 0.00 0.00 0.00 50 1077.1
20260506145703 71 115 9.6 21.7 0.00 0.00 0.00 49 1077.2
20260506145603 71 117 9.6 21.7 0.00 0.00 0.00 50 1077.1
20260506145503 71 118 9.6 21.7 0.00 0.00 0.00 49 1077.4
20260506145403 71 120 9.6 21.7 0.00 0.00 0.00 49 1077.1
20260506145305 71 120 9.6 20.0 0.00 0.00 0.00 49 1077.5
20260506145203 71 118 8.7 19.1 0.00 0.00 0.00 49 1077.2
20260506145118 71 114 8.7 19.1 0.00 0.00 0.00 50 1077.2
20260506145103 71 111 8.7 19.1 0.00 0.00 0.00 50 1077.4
20260506145003 71 111 7.8 19.1 0.00 0.00 0.00 50 1077.1
20260506144803 71 108 7.8 19.1 0.00 0.00 0.00 50 1077.4
20260506144703 71 106 7.8 19.1 0.00 0.00 0.00 50 1077.2
20260506144603 71 100 7.8 16.5 0.00 0.00 0.00 51 1077.4
20260506144503 71 97 7.8 16.5 0.00 0.00 0.00 50 1077.5
20260506144416 71 96 7.8 16.5 0.00 0.00 0.00 50 1077.5
20260506144403 71 95 7.0 16.5 0.00 0.00 0.00 50 1077.6
20260506144303 71 95 7.0 16.5 0.00 0.00 0.00 50 1077.6
20260506144218 71 93 7.0 16.5 0.00 0.00 0.00 50 1077.6
20260506144103 71 94 7.8 16.5 0.00 0.00 0.00 50 1077.4
20260506143903 71 90 8.7 16.5 0.00 0.00 0.00 50 1077.5
20260506143803 71 86 7.8 16.5 0.00 0.00 0.00 49 1077.5
20260506143716 71 88 7.8 16.5 0.00 0.00 0.00 49 1077.5
20260506143703 71 87 7.8 16.5 0.00 0.00 0.00 50 1077.6
20260506143603 71 87 7.8 16.5 0.00 0.00 0.00 50 1077.5
20260506143403 71 82 7.0 14.8 0.00 0.00 0.00 50 1077.5
20260506143303 71 81 7.0 14.8 0.00 0.00 0.00 50 1077.5
20260506143203 71 78 7.0 14.8 0.00 0.00 0.00 50 1077.6
20260506143103 71 81 7.0 14.8 0.00 0.00 0.00 50 1077.5
20260506143003 71 79 7.0 14.8 0.00 0.00 0.00 50 1077.5
20260506142903 71 80 6.1 14.8 0.00 0.00 0.00 49 1077.8
20260506142818 71 80 6.1 14.8 0.00 0.00 0.00 49 1077.8
20260506142803 71 81 6.1 14.8 0.00 0.00 0.00 49 1077.6
20260506142703 71 80 6.1 14.8 0.00 0.00 0.00 49 1077.8
20260506142503 72 81 6.1 14.8 0.00 0.00 0.00 49 1077.7
20260506142403 72 83 6.1 14.8 0.00 0.00 0.00 49 1077.9
20260506142306 72 84 6.1 14.8 0.00 0.00 0.00 49 1077.7
20260506142203 72 89 6.1 14.8 0.00 0.00 0.00 49 1077.8
20260506142103 72 86 5.2 13.0 0.00 0.00 0.00 49 1077.8
20260506142003 72 89 5.2 13.0 0.00 0.00 0.00 49 1077.5
20260506141903 72 87 5.2 13.0 0.00 0.00 0.00 49 1077.7
20260506141803 71 87 6.1 13.0 0.00 0.00 0.00 49 1078.0
20260506141703 71 84 6.1 13.0 0.00 0.00 0.00 49 1077.7
20260506141603 71 87 6.1 13.0 0.00 0.00 0.00 49 1077.6
20260506141503 71 94 6.1 20.9 0.00 0.00 0.00 50 1077.7
20260506141418 71 94 6.1 20.9 0.00 0.00 0.00 50 1077.7
20260506141403 71 94 6.1 20.9 0.00 0.00 0.00 50 1077.8
20260506141303 71 98 6.1 20.9 0.00 0.00 0.00 50 1077.7
20260506141103 71 94 7.8 20.9 0.00 0.00 0.00 49 1077.9
20260506141003 71 94 7.8 20.9 0.00 0.00 0.00 49 1077.9
20260506140903 71 94 7.8 20.9 0.00 0.00 0.00 49 1078.0
20260506140803 71 94 8.7 20.9 0.00 0.00 0.00 48 1077.9
20260506140703 71 94 8.7 20.9 0.00 0.00 0.00 49 1077.7
20260506140603 71 93 8.7 20.9 0.00 0.00 0.00 49 1078.0
20260506140503 72 90 7.8 20.9 0.00 0.00 0.00 48 1078.0
20260506140418 72 90 8.7 20.9 0.00 0.00 0.00 48 1078.0
20260506140403 72 90 8.7 20.9 0.00 0.00 0.00 48 1078.2
20260506140303 72 86 8.7 20.9 0.00 0.00 0.00 48 1078.0
20260506140003 72 91 8.7 16.5 0.00 0.00 0.00 48 1078.0
20260506135903 72 92 8.7 16.5 0.00 0.00 0.00 48 1077.8
20260506135803 72 94 8.7 16.5 0.00 0.00 0.00 48 1077.9
20260506135703 72 98 8.7 16.5 0.00 0.00 0.00 48 1078.0
20260506135617 72 98 8.7 16.5 0.00 0.00 0.00 48 1078.0
20260506135603 72 98 8.7 16.5 0.00 0.00 0.00 48 1078.1
20260506135503 72 97 8.7 16.5 0.00 0.00 0.00 48 1077.9
20260506135306 72 103 7.0 16.5 0.00 0.00 0.00 48 1077.9
20260506135217 72 104 7.0 15.6 0.00 0.00 0.00 48 1077.9
20260506135203 72 104 7.0 15.6 0.00 0.00 0.00 48 1078.0
20260506135103 72 110 7.0 15.6 0.00 0.00 0.00 48 1078.3
20260506134917 72 111 7.0 15.6 0.00 0.00 0.00 47 1077.9
20260506134903 72 110 7.0 15.6 0.00 0.00 0.00 47 1078.0
20260506134818 72 111 7.0 15.6 0.00 0.00 0.00 46 1078.0
20260506134803 72 112 7.0 15.6 0.00 0.00 0.00 46 1077.9
20260506134617 72 114 7.0 15.6 0.00 0.00 0.00 47 1078.1
20260506134503 72 116 7.0 15.6 0.00 0.00 0.00 47 1078.1
20260506134303 72 116 7.8 15.6 0.00 0.00 0.00 47 1078.1
20260506134203 72 114 8.7 15.6 0.00 0.00 0.00 47 1077.8
20260506134103 72 113 8.7 15.6 0.00 0.00 0.00 47 1078.1
20260506134017 72 112 8.7 16.5 0.00 0.00 0.00 47 1078.1
20260506134003 72 112 8.7 16.5 0.00 0.00 0.00 47 1078.1
20260506133903 72 113 8.7 16.5 0.00 0.00 0.00 46 1078.2
20260506133818 72 112 7.8 16.5 0.00 0.00 0.00 47 1078.2
20260506133704 72 112 7.8 16.5 0.00 0.00 0.00 46 1078.0
20260506133503 72 109 7.0 16.5 0.00 0.00 0.00 46 1078.2
20260506133403 72 104 7.0 16.5 0.00 0.00 0.00 47 1077.9
20260506133303 72 107 7.0 20.0 0.00 0.00 0.00 46 1077.8
20260506133203 72 105 6.1 20.0 0.00 0.00 0.00 46 1078.0
20260506133103 72 105 6.1 20.0 0.00 0.00 0.00 46 1078.1
20260506133003 72 103 6.1 20.0 0.00 0.00 0.00 46 1078.0
20260506132903 72 104 6.1 20.0 0.00 0.00 0.00 46 1078.2
20260506132818 72 105 6.1 20.0 0.00 0.00 0.00 45 1078.2
20260506132803 72 104 6.1 20.0 0.00 0.00 0.00 45 1078.1
20260506132703 72 102 6.1 20.0 0.00 0.00 0.00 46 1078.1
20260506132503 72 104 7.0 20.0 0.00 0.00 0.00 46 1078.4
20260506132403 72 105 7.0 20.0 0.00 0.00 0.00 45 1078.2
20260506132217 72 101 7.0 15.6 0.00 0.00 0.00 45 1078.1
20260506132203 72 101 7.0 15.6 0.00 0.00 0.00 45 1078.3
20260506132103 72 101 6.1 15.6 0.00 0.00 0.00 46 1078.4
20260506131917 72 100 7.0 15.6 0.00 0.00 0.00 46 1078.1
20260506131903 72 100 7.0 15.6 0.00 0.00 0.00 46 1078.4
20260506131803 72 100 7.0 15.6 0.00 0.00 0.00 45 1078.4
20260506131603 72 100 7.0 15.6 0.00 0.00 0.00 45 1078.3
20260506131503 73 104 6.1 15.6 0.00 0.00 0.00 45 1078.6
20260506131403 72 107 6.1 15.6 0.00 0.00 0.00 46 1078.4
20260506131303 72 113 6.1 11.3 0.00 0.00 0.00 46 1078.1
20260506131203 72 118 6.1 11.3 0.00 0.00 0.00 46 1078.2
20260506131103 72 122 6.1 12.2 0.00 0.00 0.00 46 1078.2
20260506131003 72 124 6.1 12.2 0.00 0.00 0.00 46 1078.5
20260506130903 72 123 6.1 12.2 0.00 0.00 0.00 45 1078.3
20260506130803 72 123 7.0 13.9 0.00 0.00 0.00 45 1078.3
20260506130703 72 123 7.0 13.9 0.00 0.00 0.00 44 1078.2
20260506130617 72 123 7.0 13.9 0.00 0.00 0.00 45 1078.2
20260506130603 72 122 7.0 13.9 0.00 0.00 0.00 45 1078.4
20260506130517 72 123 6.1 13.9 0.00 0.00 0.00 45 1078.4
20260506130503 72 121 6.1 13.9 0.00 0.00 0.00 45 1078.3
20260506130418 72 118 6.1 13.9 0.00 0.00 0.00 45 1078.3
20260506130103 72 112 6.1 13.9 0.00 0.00 0.00 45 1078.4
20260506130004 72 113 6.1 13.9 0.00 0.00 0.00 45 1078.6
20260506125903 72 111 6.1 13.9 0.00 0.00 0.00 45 1078.5
20260506125803 72 110 5.2 13.0 0.00 0.00 0.00 44 1078.6
20260506125703 72 110 4.3 12.2 0.00 0.00 0.00 45 1078.5
20260506125603 72 111 4.3 12.2 0.00 0.00 0.00 44 1078.5
20260506125517 72 106 5.2 12.2 0.00 0.00 0.00 44 1078.5
20260506125503 72 106 5.2 12.2 0.00 0.00 0.00 44 1078.7
20260506125418 72 106 5.2 12.2 0.00 0.00 0.00 44 1078.7
20260506125403 72 107 5.2 12.2 0.00 0.00 0.00 45 1078.5
20260506125318 72 108 4.3 12.2 0.00 0.00 0.00 45 1078.5
20260506125003 72 109 3.5 12.2 0.00 0.00 0.00 46 1078.6
20260506124903 72 116 4.3 12.2 0.00 0.00 0.00 46 1078.7
20260506124803 72 117 4.3 12.2 0.00 0.00 0.00 46 1078.7
20260506124703 72 120 4.3 12.2 0.00 0.00 0.00 46 1078.7
20260506124603 72 122 4.3 12.2 0.00 0.00 0.00 45 1078.4
20260506124503 72 123 4.3 12.2 0.00 0.00 0.00 45 1078.6
20260506124403 72 121 5.2 12.2 0.00 0.00 0.00 46 1078.7
20260506124303 72 119 5.2 12.2 0.00 0.00 0.00 45 1078.8
20260506124203 72 119 5.2 12.2 0.00 0.00 0.00 45 1078.8
20260506124103 72 118 6.1 12.2 0.00 0.00 0.00 45 1078.8
20260506124003 72 118 6.1 12.2 0.00 0.00 0.00 45 1078.4
20260506123917 72 118 6.1 13.9 0.00 0.00 0.00 45 1078.7
20260506123903 72 118 6.1 13.9 0.00 0.00 0.00 45 1078.7
20260506123803 72 116 6.1 13.9 0.00 0.00 0.00 45 1078.8
20260506123718 71 115 6.1 13.9 0.00 0.00 0.00 46 1078.8
20260506123603 71 116 6.1 13.9 0.00 0.00 0.00 45 1078.7
20260506123517 72 118 6.1 13.9 0.00 0.00 0.00 45 1078.7
20260506123403 72 120 6.1 13.9 0.00 0.00 0.00 45 1078.8
20260506123318 72 121 6.1 13.9 0.00 0.00 0.00 45 1078.8
20260506123203 72 122 5.2 13.9 0.00 0.00 0.00 45 1078.8
20260506123003 72 117 6.1 13.9 0.00 0.00 0.00 44 1078.8
20260506122903 72 114 6.1 13.9 0.00 0.00 0.00 44 1078.8
20260506122803 73 112 5.2 12.2 0.00 0.00 0.00 45 1078.8
20260506122703 73 112 4.3 9.6 0.00 0.00 0.00 44 1078.8
20260506122603 73 109 4.3 9.6 0.00 0.00 0.00 45 1079.2
20260506122503 73 107 4.3 9.6 0.00 0.00 0.00 45 1079.0
20260506122403 73 103 4.3 9.6 0.00 0.00 0.00 45 1079.2
20260506122305 73 100 4.3 9.6 0.00 0.00 0.00 45 1078.7
20260506122203 73 101 4.3 9.6 0.00 0.00 0.00 46 1079.2
20260506122103 73 103 4.3 9.6 0.00 0.00 0.00 46 1079.0
20260506122018 73 109 4.3 11.3 0.00 0.00 0.00 46 1079.0
20260506122003 73 109 4.3 11.3 0.00 0.00 0.00 46 1079.0
20260506121903 73 106 4.3 11.3 0.00 0.00 0.00 46 1079.2
20260506121703 73 107 5.2 11.3 0.00 0.00 0.00 46 1078.9
20260506121618 73 106 5.2 11.3 0.00 0.00 0.00 46 1078.9
20260506121603 73 105 5.2 11.3 0.00 0.00 0.00 46 1079.0
20260506121503 73 104 5.2 11.3 0.00 0.00 0.00 46 1079.2
20260506121303 73 101 6.1 14.8 0.00 0.00 0.00 45 1079.0
20260506121217 73 98 6.1 14.8 0.00 0.00 0.00 45 1079.0
20260506121203 73 98 6.1 14.8 0.00 0.00 0.00 45 1078.9
20260506121103 73 95 6.1 14.8 0.00 0.00 0.00 44 1079.0
20260506120903 73 91 6.1 14.8 0.00 0.00 0.00 45 1079.0
20260506120803 73 90 6.1 14.8 0.00 0.00 0.00 45 1079.0
20260506120703 73 88 6.1 14.8 0.00 0.00 0.00 44 1079.0
20260506120603 73 87 6.1 14.8 0.00 0.00 0.00 44 1079.0
20260506120503 74 89 6.1 14.8 0.00 0.00 0.00 44 1079.2
20260506120403 74 91 6.1 14.8 0.00 0.00 0.00 43 1079.2
20260506120303 74 93 5.2 13.9 0.00 0.00 0.00 42 1079.0
20260506120203 74 99 5.2 13.9 0.00 0.00 0.00 43 1079.0
20260506120103 74 104 5.2 13.9 0.00 0.00 0.00 42 1079.2
20260506120003 74 106 5.2 13.9 0.00 0.00 0.00 42 1078.8
20260506115903 75 108 4.3 13.9 0.00 0.00 0.00 42 1078.9
20260506115817 75 112 4.3 13.9 0.00 0.00 0.00 42 1078.9
20260506115803 75 112 4.3 13.9 0.00 0.00 0.00 42 1079.2
20260506115703 75 114 4.3 13.9 0.00 0.00 0.00 41 1079.0
20260506115503 75 114 4.3 13.9 0.00 0.00 0.00 42 1079.3
20260506115403 75 115 4.3 13.9 0.00 0.00 0.00 42 1079.3
20260506115306 75 112 4.3 13.9 0.00 0.00 0.00 42 1079.4
20260506115203 75 108 4.3 13.9 0.00 0.00 0.00 42 1078.9
20260506115103 75 107 3.5 8.7 0.00 0.00 0.00 43 1079.2
20260506115003 75 109 4.3 8.7 0.00 0.00 0.00 42 1078.9
20260506114918 75 111 3.5 8.7 0.00 0.00 0.00 42 1078.9
20260506114903 75 111 3.5 8.7 0.00 0.00 0.00 42 1079.0
20260506114817 75 111 4.3 8.7 0.00 0.00 0.00 42 1079.0
20260506114803 75 111 4.3 8.7 0.00 0.00 0.00 42 1078.9
20260506114503 75 134 3.5 8.7 0.00 0.00 0.00 43 1079.0
20260506114417 75 136 3.5 8.7 0.00 0.00 0.00 44 1079.0
20260506114403 75 137 3.5 8.7 0.00 0.00 0.00 44 1079.3
20260506114303 75 144 3.5 8.7 0.00 0.00 0.00 44 1079.2
20260506114103 74 150 3.5 7.8 0.00 0.00 0.00 44 1079.0
20260506114003 74 149 3.5 7.8 0.00 0.00 0.00 43 1079.0
20260506113903 74 150 3.5 7.8 0.00 0.00 0.00 43 1079.2
20260506113803 74 151 3.5 7.8 0.00 0.00 0.00 42 1079.3
20260506113717 75 149 3.5 7.8 0.00 0.00 0.00 43 1079.3
20260506113703 75 147 3.5 7.8 0.00 0.00 0.00 43 1079.0
20260506113603 75 136 3.5 8.7 0.00 0.00 0.00 42 1079.2
20260506113517 75 132 3.5 8.7 0.00 0.00 0.00 43 1079.2
20260506113417 75 131 3.5 8.7 0.00 0.00 0.00 43 1079.0
20260506113403 75 131 3.5 8.7 0.00 0.00 0.00 43 1079.2
20260506113103 74 127 3.5 8.7 0.00 0.00 0.00 43 1079.3
20260506113003 74 121 3.5 8.7 0.00 0.00 0.00 45 1079.2
20260506112918 74 114 3.5 8.7 0.00 0.00 0.00 45 1079.2
20260506112903 74 114 3.5 8.7 0.00 0.00 0.00 44 1079.2
20260506112803 74 108 3.5 8.7 0.00 0.00 0.00 44 1079.4
20260506112603 74 102 3.5 7.8 0.00 0.00 0.00 43 1079.2
20260506112503 74 100 3.5 7.8 0.00 0.00 0.00 44 1079.2
20260506112403 74 100 4.3 9.6 0.00 0.00 0.00 44 1079.5
20260506112305 74 97 4.3 9.6 0.00 0.00 0.00 43 1079.5
20260506112218 74 96 4.3 9.6 0.00 0.00 0.00 42 1079.5
20260506112203 74 96 4.3 9.6 0.00 0.00 0.00 42 1079.4
20260506112103 74 96 4.3 9.6 0.00 0.00 0.00 43 1079.6
20260506111903 75 101 4.3 9.6 0.00 0.00 0.00 42 1079.2
20260506111803 75 104 4.3 9.6 0.00 0.00 0.00 43 1079.5
20260506111703 75 104 4.3 9.6 0.00 0.00 0.00 42 1079.4
20260506111603 75 105 5.2 9.6 0.00 0.00 0.00 43 1079.5
20260506111503 75 109 4.3 9.6 0.00 0.00 0.00 43 1079.4
20260506111403 75 111 4.3 9.6 0.00 0.00 0.00 42 1079.5
20260506111303 75 112 4.3 9.6 0.00 0.00 0.00 43 1079.5
20260506111203 75 113 5.2 9.6 0.00 0.00 0.00 44 1079.6
20260506111103 75 116 5.2 9.6 0.00 0.00 0.00 43 1079.5
20260506111017 75 115 5.2 9.6 0.00 0.00 0.00 44 1079.5
20260506111003 75 115 5.2 9.6 0.00 0.00 0.00 44 1079.7
20260506110918 75 117 5.2 9.6 0.00 0.00 0.00 44 1079.7
20260506110903 75 116 5.2 9.6 0.00 0.00 0.00 44 1079.5
20260506110603 76 116 6.1 13.0 0.00 0.00 0.00 42 1079.2
20260506110503 76 114 6.1 13.0 0.00 0.00 0.00 42 1079.8
20260506110403 76 116 6.1 13.0 0.00 0.00 0.00 42 1079.5
20260506110303 76 119 6.1 13.0 0.00 0.00 0.00 42 1079.5
20260506110203 77 119 6.1 13.0 0.00 0.00 0.00 42 1079.5
20260506110117 77 116 6.1 13.0 0.00 0.00 0.00 42 1079.5
20260506110103 77 117 6.1 13.0 0.00 0.00 0.00 42 1079.5
20260506110003 77 116 6.1 13.0 0.00 0.00 0.00 42 1079.8
20260506105803 77 119 6.1 13.0 0.00 0.00 0.00 41 1079.4
20260506105717 77 120 6.1 13.0 0.00 0.00 0.00 42 1079.4
20260506105703 77 120 6.1 13.0 0.00 0.00 0.00 42 1079.5
20260506105603 78 120 5.2 13.0 0.00 0.00 0.00 42 1079.7
20260506105403 78 112 5.2 12.2 0.00 0.00 0.00 43 1079.6
20260506105305 77 106 4.3 12.2 0.00 0.00 0.00 43 1079.3
20260506105203 77 99 4.3 12.2 0.00 0.00 0.00 44 1079.7
20260506105103 76 100 4.3 8.7 0.00 0.00 0.00 44 1079.7
20260506105003 76 102 4.3 8.7 0.00 0.00 0.00 43 1079.6
20260506104903 76 103 3.5 8.7 0.00 0.00 0.00 43 1079.7
20260506104803 76 107 4.3 11.3 0.00 0.00 0.00 43 1079.9
20260506104703 76 108 4.3 11.3 0.00 0.00 0.00 43 1079.4
20260506104618 76 111 4.3 11.3 0.00 0.00 0.00 43 1079.4
20260506104603 76 111 4.3 11.3 0.00 0.00 0.00 43 1079.8
20260506104503 76 110 4.3 12.2 0.00 0.00 0.00 43 1079.6
20260506104303 76 112 5.2 13.9 0.00 0.00 0.00 44 1079.7
20260506104203 76 115 5.2 13.9 0.00 0.00 0.00 44 1079.6
20260506104103 76 118 5.2 13.9 0.00 0.00 0.00 44 1079.7
20260506104003 76 114 5.2 13.9 0.00 0.00 0.00 44 1079.6
20260506103903 76 112 5.2 13.9 0.00 0.00 0.00 44 1079.7
20260506103803 76 108 5.2 13.9 0.00 0.00 0.00 44 1079.6
20260506103703 76 102 5.2 13.9 0.00 0.00 0.00 45 1079.5
20260506103618 75 100 5.2 13.9 0.00 0.00 0.00 45 1079.5
20260506103603 75 99 5.2 13.9 0.00 0.00 0.00 45 1079.8
20260506103503 75 101 5.2 13.9 0.00 0.00 0.00 45 1079.7
20260506103303 74 106 5.2 12.2 0.00 0.00 0.00 47 1079.7
20260506103203 74 103 4.3 12.2 0.00 0.00 0.00 47 1079.8
20260506103103 74 102 4.3 12.2 0.00 0.00 0.00 46 1079.6
20260506103003 74 104 4.3 12.2 0.00 0.00 0.00 47 1079.8
20260506102903 74 107 4.3 12.2 0.00 0.00 0.00 46 1079.6
20260506102803 74 104 4.3 12.2 0.00 0.00 0.00 47 1079.8
20260506102703 74 108 4.3 12.2 0.00 0.00 0.00 46 1079.7
20260506102603 74 110 4.3 12.2 0.00 0.00 0.00 46 1080.0
20260506102518 74 112 3.5 9.6 0.00 0.00 0.00 46 1080.0
20260506102503 74 113 3.5 9.6 0.00 0.00 0.00 46 1079.9
20260506102403 74 117 3.5 9.6 0.00 0.00 0.00 47 1079.6
20260506102203 74 126 3.5 9.6 0.00 0.00 0.00 48 1079.8
20260506102117 73 125 3.5 9.6 0.00 0.00 0.00 47 1079.8
20260506102104 73 126 3.5 9.6 0.00 0.00 0.00 47 1079.8
20260506102003 73 134 3.5 9.6 0.00 0.00 0.00 47 1079.8
20260506101803 73 141 3.5 8.7 0.00 0.00 0.00 46 1079.6
20260506101703 73 146 3.5 8.7 0.00 0.00 0.00 46 1079.6
20260506101617 73 147 4.3 11.3 0.00 0.00 0.00 47 1079.6
20260506101603 73 145 4.3 11.3 0.00 0.00 0.00 47 1079.5
20260506101503 73 139 4.3 11.3 0.00 0.00 0.00 47 1079.5
20260506101303 73 127 4.3 11.3 0.00 0.00 0.00 46 1079.4
20260506101203 73 118 4.3 11.3 0.00 0.00 0.00 47 1079.7
20260506101103 73 118 4.3 11.3 0.00 0.00 0.00 46 1079.4
20260506101003 74 120 5.2 11.3 0.00 0.00 0.00 45 1079.7
20260506100903 74 118 5.2 11.3 0.00 0.00 0.00 45 1079.7
20260506100803 74 116 5.2 11.3 0.00 0.00 0.00 45 1079.8
20260506100703 75 110 5.2 11.3 0.00 0.00 0.00 45 1079.7
20260506100603 75 109 5.2 11.3 0.00 0.00 0.00 45 1079.7
20260506100503 75 119 5.2 13.9 0.00 0.00 0.00 45 1079.6
20260506100403 75 130 5.2 13.9 0.00 0.00 0.00 45 1079.9
20260506100303 76 132 5.2 13.9 0.00 0.00 0.00 45 1079.8
20260506100203 75 139 4.3 13.9 0.00 0.00 0.00 46 1079.8
20260506100004 75 145 4.3 13.9 0.00 0.00 0.00 46 1079.8
20260506095903 75 148 4.3 13.9 0.00 0.00 0.00 46 1080.0
20260506095803 75 151 4.3 13.9 0.00 0.00 0.00 44 1079.9
20260506095703 75 157 3.5 13.9 0.00 0.00 0.00 44 1080.1
20260506095603 75 155 3.5 13.9 0.00 0.00 0.00 44 1079.7
20260506095503 75 150 3.5 13.9 0.00 0.00 0.00 45 1079.6
20260506095403 75 144 3.5 8.7 0.00 0.00 0.00 46 1079.9
20260506095317 75 142 3.5 8.7 0.00 0.00 0.00 45 1079.9
20260506095305 75 144 3.5 8.7 0.00 0.00 0.00 45 1079.7
20260506095203 75 139 3.5 8.7 0.00 0.00 0.00 45 1079.6
20260506095003 75 119 3.5 8.7 0.00 0.00 0.00 46 1080.0
20260506094903 75 116 3.5 8.7 0.00 0.00 0.00 45 1079.5
20260506094803 75 117 4.3 12.2 0.00 0.00 0.00 45 1079.8
20260506094703 75 114 4.3 12.2 0.00 0.00 0.00 45 1079.9
20260506094603 76 109 4.3 12.2 0.00 0.00 0.00 45 1079.8
20260506094503 75 106 4.3 12.2 0.00 0.00 0.00 47 1080.0
20260506094403 75 106 4.3 12.2 0.00 0.00 0.00 46 1079.9
20260506094303 75 110 4.3 12.2 0.00 0.00 0.00 48 1080.0
20260506094203 75 115 4.3 12.2 0.00 0.00 0.00 47 1080.0
20260506094103 75 121 4.3 12.2 0.00 0.00 0.00 47 1079.8
20260506094003 74 133 3.5 12.2 0.00 0.00 0.00 46 1080.0
20260506093903 74 137 3.5 12.2 0.00 0.00 0.00 47 1080.0
20260506093803 74 141 3.5 9.6 0.00 0.00 0.00 47 1079.8
20260506093703 74 145 3.5 9.6 0.00 0.00 0.00 48 1079.8
20260506093617 73 153 2.6 7.0 0.00 0.00 0.00 49 1079.8
20260506093603 73 153 2.6 7.0 0.00 0.00 0.00 49 1079.8
20260506093503 73 147 3.5 7.8 0.00 0.00 0.00 49 1080.0
20260506093417 73 135 3.5 8.7 0.00 0.00 0.00 48 1080.0
20260506093303 74 129 3.5 8.7 0.00 0.00 0.00 47 1080.0
20260506093103 74 118 4.3 8.7 0.00 0.00 0.00 48 1079.8
20260506093003 74 115 4.3 8.7 0.00 0.00 0.00 47 1079.9
20260506092903 74 114 4.3 8.7 0.00 0.00 0.00 47 1079.9
20260506092803 74 110 4.3 8.7 0.00 0.00 0.00 47 1079.9
20260506092717 74 112 4.3 8.7 0.00 0.00 0.00 47 1079.9
20260506092703 74 112 4.3 8.7 0.00 0.00 0.00 47 1079.9
20260506092603 74 110 5.2 8.7 0.00 0.00 0.00 47 1079.7
20260506092403 74 111 5.2 13.0 0.00 0.00 0.00 47 1080.0
20260506092317 74 112 5.2 13.0 0.00 0.00 0.00 47 1080.0
20260506092305 74 112 5.2 13.0 0.00 0.00 0.00 47 1079.8
20260506092217 74 111 5.2 13.0 0.00 0.00 0.00 47 1079.8
20260506092203 74 111 5.2 13.0 0.00 0.00 0.00 48 1080.0
20260506091903 74 109 6.1 13.0 0.00 0.00 0.00 47 1079.9
20260506091803 74 111 6.1 13.0 0.00 0.00 0.00 47 1079.7
20260506091703 74 111 6.1 13.0 0.00 0.00 0.00 46 1080.0
20260506091603 74 113 5.2 13.0 0.00 0.00 0.00 47 1079.8
20260506091518 74 116 5.2 13.0 0.00 0.00 0.00 48 1079.8
20260506091503 74 116 5.2 13.0 0.00 0.00 0.00 48 1079.7
20260506091403 74 120 5.2 11.3 0.00 0.00 0.00 49 1079.8
20260506091317 73 118 5.2 11.3 0.00 0.00 0.00 49 1079.8
20260506091203 73 119 4.3 8.7 0.00 0.00 0.00 49 1079.8
20260506091017 73 116 4.3 8.7 0.00 0.00 0.00 49 1079.7
20260506091003 73 117 4.3 8.7 0.00 0.00 0.00 49 1079.9
20260506090918 72 116 4.3 8.7 0.00 0.00 0.00 50 1079.9
20260506090903 72 117 4.3 8.7 0.00 0.00 0.00 50 1079.8
20260506090617 72 117 3.5 8.7 0.00 0.00 0.00 51 1080.0
20260506090603 72 117 3.5 8.7 0.00 0.00 0.00 51 1079.9
20260506090503 72 116 2.6 8.7 0.00 0.00 0.00 51 1079.8
20260506090418 72 113 2.6 7.8 0.00 0.00 0.00 51 1079.8
20260506090303 71 123 2.6 8.7 0.00 0.00 0.00 53 1079.9
20260506090123 70 135 2.6 8.7 0.00 0.00 0.00 53 1079.8
20260506090006 70 142 2.6 8.7 0.00 0.00 0.00 52 1079.9
20260506085803 70 164 3.5 8.7 0.00 0.00 0.00 52 1079.7
20260506085722 70 167 3.5 8.7 0.00 0.00 0.00 52 1079.7
20260506085428 71 172 3.5 8.7 0.00 0.00 0.00 50 1079.9
20260506085329 71 169 3.5 8.7 0.00 0.00 0.00 50 1079.7
20260506085203 71 159 3.5 8.7 0.00 0.00 0.00 49 1079.9
20260506085118 72 160 3.5 8.7 0.00 0.00 0.00 48 1079.9
20260506085103 72 161 3.5 8.7 0.00 0.00 0.00 48 1080.0
20260506085016 72 162 3.5 8.7 0.00 0.00 0.00 48 1080.0
20260506085003 72 160 3.5 8.7 0.00 0.00 0.00 48 1079.6
20260506084703 72 154 2.6 8.7 0.00 0.00 0.00 49 1079.7
20260506084603 72 147 2.6 8.7 0.00 0.00 0.00 50 1079.8
20260506084503 72 145 2.6 7.0 0.00 0.00 0.00 51 1079.8
20260506084403 71 141 2.6 7.0 0.00 0.00 0.00 51 1079.6
20260506084303 71 149 2.6 6.1 0.00 0.00 0.00 52 1079.9
20260506084203 71 161 1.7 6.1 0.00 0.00 0.00 53 1079.9
20260506084118 71 160 1.7 6.1 0.00 0.00 0.00 53 1079.9
20260506084103 71 162 1.7 6.1 0.00 0.00 0.00 52 1079.9
20260506084003 70 168 2.6 6.1 0.00 0.00 0.00 53 1080.0
20260506083917 70 165 2.6 6.1 0.00 0.00 0.00 53 1080.0
20260506083803 69 154 2.6 6.1 0.00 0.00 0.00 57 1079.8
20260506083603 69 157 2.6 6.1 0.00 0.00 0.00 57 1079.8
20260506083503 68 158 2.6 6.1 0.00 0.00 0.00 56 1079.8
20260506083403 68 163 2.6 6.1 0.00 0.00 0.00 56 1079.7
20260506083317 67 165 2.6 6.1 0.00 0.00 0.00 56 1080.2
20260506083303 67 166 2.6 7.0 0.00 0.00 0.00 56 1080.2
20260506083017 67 159 2.6 7.0 0.00 0.00 0.00 56 1080.2
20260506083003 67 158 2.6 7.0 0.00 0.00 0.00 56 1080.2
20260506082903 67 161 2.6 7.0 0.00 0.00 0.00 55 1080.1
20260506082703 68 166 2.6 7.0 0.00 0.00 0.00 54 1079.9
20260506082603 68 173 2.6 7.0 0.00 0.00 0.00 54 1079.8
20260506082503 69 183 3.5 7.0 0.00 0.00 0.00 53 1080.0
20260506082403 69 179 3.5 8.7 0.00 0.00 0.00 53 1079.9
20260506082305 69 176 3.5 8.7 0.00 0.00 0.00 53 1079.7
20260506082203 69 180 3.5 8.7 0.00 0.00 0.00 52 1080.0
20260506082103 69 180 3.5 8.7 0.00 0.00 0.00 52 1080.0
20260506082003 69 187 3.5 8.7 0.00 0.00 0.00 52 1079.8
20260506081903 69 187 3.5 8.7 0.00 0.00 0.00 51 1079.9
20260506081803 70 186 3.5 8.7 0.00 0.00 0.00 51 1079.9
20260506081703 70 181 3.5 8.7 0.00 0.00 0.00 51 1079.7
20260506081603 70 177 3.5 8.7 0.00 0.00 0.00 51 1080.1
20260506081503 71 173 3.5 8.7 0.00 0.00 0.00 52 1079.9
20260506081403 70 182 2.6 7.8 0.00 0.00 0.00 52 1079.8
20260506081303 70 188 2.6 7.8 0.00 0.00 0.00 53 1080.0
20260506081203 70 191 2.6 7.8 0.00 0.00 0.00 53 1080.0
20260506081103 70 190 2.6 7.8 0.00 0.00 0.00 53 1079.9
20260506081003 70 182 2.6 7.8 0.00 0.00 0.00 54 1079.8
20260506080903 69 181 2.6 7.8 0.00 0.00 0.00 54 1080.0
20260506080803 69 184 2.6 7.8 0.00 0.00 0.00 54 1079.9
20260506080703 69 188 2.6 7.8 0.00 0.00 0.00 54 1080.0
20260506080603 69 180 2.6 7.8 0.00 0.00 0.00 54 1079.9
20260506080503 69 173 2.6 6.1 0.00 0.00 0.00 56 1079.9
20260506080403 68 163 2.6 6.1 0.00 0.00 0.00 57 1080.0
20260506080316 68 155 2.6 6.1 0.00 0.00 0.00 57 1080.0
20260506080303 68 155 2.6 6.1 0.00 0.00 0.00 57 1079.7
20260506080203 67 156 2.6 6.1 0.00 0.00 0.00 58 1079.8
20260506073403 66 231 1.7 6.1 0.00 0.00 0.00 57 1079.9
20260506073303 67 228 1.7 6.1 0.00 0.00 0.00 57 1079.8
20260506073203 67 224 1.7 6.1 0.00 0.00 0.00 56 1079.8
20260506073103 67 218 1.7 5.2 0.00 0.00 0.00 56 1080.0
20260506073003 68 229 1.7 5.2 0.00 0.00 0.00 56 1080.1
20260506072903 68 234 1.7 5.2 0.00 0.00 0.00 55 1079.9
20260506072803 68 239 1.7 6.1 0.00 0.00 0.00 55 1079.7
20260506072718 69 241 1.7 6.1 0.00 0.00 0.00 54 1079.7
20260506072703 69 241 1.7 6.1 0.00 0.00 0.00 54 1079.9
20260506072603 69 238 1.7 6.1 0.00 0.00 0.00 54 1079.9
20260506072403 69 233 1.7 6.1 0.00 0.00 0.00 55 1080.0
20260506072305 69 235 1.7 6.1 0.00 0.00 0.00 55 1080.0
20260506072203 69 240 1.7 6.1 0.00 0.00 0.00 55 1079.7
20260506072103 69 240 1.7 6.1 0.00 0.00 0.00 55 1079.8
20260506072003 69 233 1.7 6.1 0.00 0.00 0.00 55 1079.9
20260506071917 69 226 1.7 6.1 0.00 0.00 0.00 55 1079.9
20260506071903 69 223 1.7 6.1 0.00 0.00 0.00 55 1080.0
20260506071803 69 219 1.7 6.1 0.00 0.00 0.00 55 1079.7
20260506071616 69 230 2.6 7.0 0.00 0.00 0.00 56 1080.0
20260506071603 69 235 2.6 7.0 0.00 0.00 0.00 58 1080.0
20260506071517 69 241 2.6 7.0 0.00 0.00 0.00 58 1080.0
20260506071503 68 243 2.6 7.0 0.00 0.00 0.00 57 1079.9
20260506071203 68 248 3.5 9.6 0.00 0.00 0.00 58 1079.8
20260506071103 67 247 3.5 9.6 0.00 0.00 0.00 58 1079.8
20260506071003 67 245 3.5 9.6 0.00 0.00 0.00 58 1079.8
20260506070903 67 246 3.5 9.6 0.00 0.00 0.00 57 1079.9
20260506070803 67 248 3.5 9.6 0.00 0.00 0.00 58 1079.9
20260506070703 67 251 3.5 9.6 0.00 0.00 0.00 58 1079.8
20260506070603 67 248 3.5 9.6 0.00 0.00 0.00 58 1079.8
20260506070503 67 247 3.5 9.6 0.00 0.00 0.00 57 1079.9
20260506070403 67 244 2.6 9.6 0.00 0.00 0.00 58 1079.8
20260506070303 68 243 2.6 9.6 0.00 0.00 0.00 58 1080.0
20260506070203 68 235 2.6 7.0 0.00 0.00 0.00 58 1079.8
20260506070103 68 239 2.6 7.0 0.00 0.00 0.00 58 1080.0
20260506062503 63 179 0.9 5.2 0.00 0.00 0.00 67 1079.9
20260506062403 63 191 0.9 5.2 0.00 0.00 0.00 68 1079.7
20260506062305 63 215 0.9 3.5 0.00 0.00 0.00 68 1079.7
20260506062203 63 220 0.9 3.5 0.00 0.00 0.00 69 1079.8
20260506062103 63 256 0.9 5.2 0.00 0.00 0.00 70 1079.5
20260506062003 62 286 0.9 5.2 0.00 0.00 0.00 71 1079.6
20260506061903 62 277 0.9 5.2 0.00 0.00 0.00 72 1079.7
20260506061803 61 270 0.9 5.2 0.00 0.00 0.00 75 1079.7
20260506061717 61 260 1.7 5.2 0.00 0.00 0.00 74 1079.7
20260506061703 61 259 1.7 5.2 0.00 0.00 0.00 74 1079.7
20260506061603 60 259 1.7 5.2 0.00 0.00 0.00 75 1079.6
20260506061403 60 258 2.6 6.1 0.00 0.00 0.00 75 1079.4
20260506061318 60 256 2.6 6.1 0.00 0.00 0.00 75 1079.4
20260506061303 59 256 2.6 6.1 0.00 0.00 0.00 75 1079.5
20260506061203 59 260 2.6 6.1 0.00 0.00 0.00 75 1079.5
20260506061117 59 254 2.6 6.1 0.00 0.00 0.00 75 1079.5
20260506061003 59 251 2.6 6.1 0.00 0.00 0.00 75 1079.6
20260506060817 59 245 1.7 6.1 0.00 0.00 0.00 76 1079.6
20260506060803 59 243 1.7 6.1 0.00 0.00 0.00 76 1079.5
20260506060717 58 240 1.7 6.1 0.00 0.00 0.00 76 1079.5
20260506060703 58 239 1.7 6.1 0.00 0.00 0.00 76 1079.6
20260506060403 58 203 1.7 7.0 0.00 0.00 0.00 77 1079.6
20260506060303 58 202 1.7 7.0 0.00 0.00 0.00 77 1079.6
20260506060204 58 197 1.7 7.0 0.00 0.00 0.00 78 1079.8
20260506051403 56 237 2.6 7.0 0.00 0.00 0.00 83 1079.5
20260506051203 56 241 2.6 6.1 0.00 0.00 0.00 83 1079.6
20260506051103 56 237 2.6 6.1 0.00 0.00 0.00 83 1079.6
20260506051003 56 235 1.7 6.1 0.00 0.00 0.00 83 1079.5
20260506050903 56 235 1.7 6.1 0.00 0.00 0.00 83 1079.5
20260506050803 56 231 1.7 6.1 0.00 0.00 0.00 83 1079.5
20260506050703 56 230 1.7 6.1 0.00 0.00 0.00 83 1079.6
20260506050603 56 226 1.7 6.1 0.00 0.00 0.00 83 1079.3
20260506050503 56 215 1.7 3.5 0.00 0.00 0.00 83 1079.4
20260506050403 56 207 0.9 3.5 0.00 0.00 0.00 83 1079.5
20260506050303 56 196 0.9 3.5 0.00 0.00 0.00 83 1079.2
20260506050203 56 189 0.9 2.6 0.00 0.00 0.00 84 1079.4
20260506050116 57 185 0.9 2.6 0.00 0.00 0.00 84 1079.6
20260506050103 57 183 0.9 2.6 0.00 0.00 0.00 84 1079.6
20260506045103 58 196 0.9 2.6 0.00 0.00 0.00 88 1079.2
20260506045003 58 193 0.9 2.6 0.00 0.00 0.00 89 1078.9
20260506044903 57 194 0.9 2.6 0.00 0.00 0.00 89 1079.2
20260506044803 57 193 0.9 3.5 0.00 0.00 0.00 89 1079.2
20260506044703 57 191 0.9 3.5 0.00 0.00 0.00 89 1079.4
20260506044603 57 182 0.9 3.5 0.00 0.00 0.00 90 1079.0
20260506044503 56 175 0.9 5.2 0.00 0.00 0.00 91 1079.2
20260506044403 56 176 0.9 5.2 0.00 0.00 0.00 91 1079.0
20260506044303 56 181 0.9 5.2 0.00 0.00 0.00 91 1079.0
20260506044203 56 184 1.7 5.2 0.00 0.00 0.00 91 1078.9
20260506044103 56 182 1.7 5.2 0.00 0.00 0.00 91 1078.8
20260506044003 55 180 1.7 5.2 0.00 0.00 0.00 92 1079.2
20260506043903 55 181 1.7 5.2 0.00 0.00 0.00 92 1079.2
20260506043803 55 181 1.7 5.2 0.00 0.00 0.00 91 1079.0
20260506043703 54 180 1.7 5.2 0.00 0.00 0.00 92 1078.9
20260506043617 54 185 1.7 5.2 0.00 0.00 0.00 93 1078.9
20260506043603 54 186 1.7 5.2 0.00 0.00 0.00 93 1079.2
20260506043503 54 189 1.7 5.2 0.00 0.00 0.00 93 1079.0
20260506043417 54 187 1.7 3.5 0.00 0.00 0.00 93 1079.0
20260506043303 54 186 1.7 3.5 0.00 0.00 0.00 93 1079.0
20260506043103 53 189 0.9 3.5 0.00 0.00 0.00 93 1079.0
20260506043003 53 193 0.9 3.5 0.00 0.00 0.00 93 1079.0
20260506042903 53 194 0.9 3.5 0.00 0.00 0.00 93 1078.8
20260506042818 53 190 0.9 3.5 0.00 0.00 0.00 93 1078.8
20260506042803 53 188 0.9 3.5 0.00 0.00 0.00 93 1079.2
20260506042703 53 185 0.9 3.5 0.00 0.00 0.00 93 1079.2
20260506042503 53 178 0.9 2.6 0.00 0.00 0.00 93 1078.7
20260506042417 53 188 0.9 2.6 0.00 0.00 0.00 93 1078.7
20260506042403 53 188 0.9 2.6 0.00 0.00 0.00 93 1078.8
20260506042305 53 179 0.9 2.6 0.00 0.00 0.00 93 1078.9
20260506042103 53 176 0.9 2.6 0.00 0.00 0.00 93 1078.9
20260506042003 52 174 0.9 2.6 0.00 0.00 0.00 93 1078.8
20260506041903 52 172 0.9 2.6 0.00 0.00 0.00 93 1079.0
20260506041803 52 178 0.9 2.6 0.00 0.00 0.00 93 1078.5
20260506041717 52 176 0.9 2.6 0.00 0.00 0.00 93 1078.5
20260506041703 52 176 0.9 2.6 0.00 0.00 0.00 93 1078.9
20260506041603 52 169 0.9 2.6 0.00 0.00 0.00 93 1078.9
20260506041518 52 169 0.9 2.6 0.00 0.00 0.00 94 1078.9
20260506041403 52 166 0.9 2.6 0.00 0.00 0.00 94 1078.9
20260506041218 52 161 0.9 2.6 0.00 0.00 0.00 93 1079.2
20260506041203 52 161 0.9 2.6 0.00 0.00 0.00 93 1078.7
20260506041103 52 160 0.9 2.6 0.00 0.00 0.00 93 1079.0
20260506040903 52 157 0.9 2.6 0.00 0.00 0.00 92 1078.8
20260506040803 52 151 0.9 2.6 0.00 0.00 0.00 92 1078.9
20260506040717 52 150 0.9 2.6 0.00 0.00 0.00 92 1078.9
20260506040703 52 151 0.9 2.6 0.00 0.00 0.00 92 1078.8
20260506040603 52 150 0.9 5.2 0.00 0.00 0.00 92 1078.6
20260506040403 52 142 0.9 5.2 0.00 0.00 0.00 92 1078.8
20260506040303 52 141 0.9 5.2 0.00 0.00 0.00 92 1078.7
20260506040203 52 141 0.9 5.2 0.00 0.00 0.00 92 1078.7
20260506040003 52 141 0.9 5.2 0.00 0.00 0.00 92 1078.6
20260506035903 52 140 0.9 5.2 0.00 0.00 0.00 92 1078.7
20260506035803 52 142 0.9 5.2 0.00 0.00 0.00 93 1078.6
20260506035703 52 147 1.7 5.2 0.00 0.00 0.00 92 1078.5
20260506035603 52 146 1.7 5.2 0.00 0.00 0.00 92 1078.6
20260506035503 52 149 0.9 2.6 0.00 0.00 0.00 92 1078.5
20260506035403 52 149 0.9 2.6 0.00 0.00 0.00 94 1078.6
20260506035305 52 154 1.7 2.6 0.00 0.00 0.00 92 1078.5
20260506035203 52 157 1.7 2.6 0.00 0.00 0.00 92 1078.5
20260506035103 52 163 1.7 2.6 0.00 0.00 0.00 91 1078.6
20260506035017 52 166 0.9 2.6 0.00 0.00 0.00 91 1078.6
20260506035003 52 167 0.9 2.6 0.00 0.00 0.00 91 1078.6
20260506034917 52 170 0.9 2.6 0.00 0.00 0.00 91 1078.6
20260506034903 52 169 0.9 2.6 0.00 0.00 0.00 91 1078.8
20260506034717 52 165 0.9 2.6 0.00 0.00 0.00 91 1078.6
20260506034603 52 170 0.9 2.6 0.00 0.00 0.00 91 1078.7
20260506034403 52 195 0.9 1.7 0.00 0.00 0.00 91 1078.6
20260506034303 52 188 0.0 1.7 0.00 0.00 0.00 91 1078.6
20260506034203 52 180 0.0 1.7 0.00 0.00 0.00 90 1078.4